Time,TemperatureF,DewpointF,PressureIn,WindDirection,WindDirectionDegrees,WindSpeedMPH,WindSpeedGustMPH,Humidity,HourlyPrecipIn,Conditions,Clouds,dailyrainin,SoftwareType,DateUTC
2013-03-14 00:00:00,34.3,18.9,30.18,North,349,3.0,5.0,53,0.00,,,0.00,Wunderground v.1.15,2013-03-14 04:00:00,
2013-03-14 00:02:00,34.3,18.5,30.18,East,79,1.0,6.0,52,0.00,,,0.00,Wunderground v.1.15,2013-03-14 04:02:00,
2013-03-14 00:06:00,34.3,18.9,30.18,WSW,250,2.0,6.0,53,0.00,,,0.00,Wunderground v.1.15,2013-03-14 04:06:00,
2013-03-14 00:07:00,34.3,18.5,30.19,ENE,68,1.0,6.0,52,0.00,,,0.00,Wunderground v.1.15,2013-03-14 04:07:00,
2013-03-14 00:09:00,34.2,18.8,30.18,North,352,1.0,6.0,53,0.00,,,0.00,Wunderground v.1.15,2013-03-14 04:09:00,
2013-03-14 00:14:00,34.0,18.6,30.18,NW,322,1.0,2.0,53,0.00,,,0.00,Wunderground v.1.15,2013-03-14 04:14:00,
2013-03-14 00:19:00,33.8,18.9,30.18,North,354,2.0,4.0,54,0.00,,,0.00,Wunderground v.1.15,2013-03-14 04:19:00,
2013-03-14 00:21:00,33.8,18.9,30.18,NW,310,1.0,3.0,54,0.00,,,0.00,Wunderground v.1.15,2013-03-14 04:21:00,
2013-03-14 00:23:00,33.8,18.9,30.18,NNE,28,0.0,3.0,54,0.00,,,0.00,Wunderground v.1.15,2013-03-14 04:23:00,
2013-03-14 00:26:00,33.7,18.8,30.18,NE,45,2.0,3.0,54,0.00,,,0.00,Wunderground v.1.15,2013-03-14 04:26:00,
2013-03-14 00:28:00,33.7,18.8,30.19,East,80,3.0,3.0,54,0.00,,,0.00,Wunderground v.1.15,2013-03-14 04:28:00,
2013-03-14 00:30:00,33.8,18.5,30.19,ENE,76,2.0,2.0,53,0.00,,,0.00,Wunderground v.1.15,2013-03-14 04:30:00,
2013-03-14 00:31:00,33.8,18.9,30.19,NE,49,8.0,8.0,54,0.00,,,0.00,Wunderground v.1.15,2013-03-14 04:31:00,
2013-03-14 00:35:00,33.8,18.5,30.19,NE,44,0.0,8.0,53,0.00,,,0.00,Wunderground v.1.15,2013-03-14 04:35:00,
2013-03-14 00:36:00,33.7,18.8,30.19,NE,41,0.0,8.0,54,0.00,,,0.00,Wunderground v.1.15,2013-03-14 04:36:00,
2013-03-14 00:42:00,33.5,18.6,30.19,ESE,104,1.0,2.0,54,0.00,,,0.00,Wunderground v.1.15,2013-03-14 04:42:00,
2013-03-14 00:44:00,33.4,18.5,30.19,NNE,31,3.0,3.0,54,0.00,,,0.00,Wunderground v.1.15,2013-03-14 04:44:00,
2013-03-14 00:47:00,33.3,18.4,30.19,North,10,2.0,3.0,54,0.00,,,0.00,Wunderground v.1.15,2013-03-14 04:47:00,
2013-03-14 00:49:00,33.3,18.4,30.19,NNW,341,1.0,3.0,54,0.00,,,0.00,Wunderground v.1.15,2013-03-14 04:49:00,
2013-03-14 00:54:00,33.2,18.8,30.19,NW,311,2.0,3.0,55,0.00,,,0.00,Wunderground v.1.15,2013-03-14 04:54:00,
2013-03-14 00:55:00,33.1,18.2,30.19,WNW,293,2.0,3.0,54,0.00,,,0.00,Wunderground v.1.15,2013-03-14 04:55:00,
2013-03-14 00:58:00,33.2,18.3,30.19,NW,323,1.0,3.0,54,0.00,,,0.00,Wunderground v.1.15,2013-03-14 04:58:00,
2013-03-14 01:01:00,33.2,18.3,30.19,NNW,328,3.0,3.0,54,0.00,,,0.00,Wunderground v.1.15,2013-03-14 05:01:00,
2013-03-14 01:03:00,33.2,18.3,30.19,NNE,26,2.0,3.0,54,0.00,,,0.00,Wunderground v.1.15,2013-03-14 05:03:00,
2013-03-14 01:04:00,33.1,18.2,30.19,NNE,23,0.0,3.0,54,0.00,,,0.00,Wunderground v.1.15,2013-03-14 05:04:00,
2013-03-14 01:06:00,33.1,18.7,30.20,North,8,0.0,3.0,55,0.00,,,0.00,Wunderground v.1.15,2013-03-14 05:06:00,
2013-03-14 01:08:00,33.0,18.1,30.20,NNW,327,3.0,3.0,54,0.00,,,0.00,Wunderground v.1.15,2013-03-14 05:08:00,
2013-03-14 01:10:00,33.0,18.1,30.20,West,278,1.0,1.0,54,0.00,,,0.00,Wunderground v.1.15,2013-03-14 05:10:00,
2013-03-14 01:13:00,32.9,18.1,30.20,NE,35,2.0,4.0,54,0.00,,,0.00,Wunderground v.1.15,2013-03-14 05:13:00,
2013-03-14 01:15:00,32.9,18.1,30.20,WNW,285,3.0,4.0,54,0.00,,,0.00,Wunderground v.1.15,2013-03-14 05:15:00,
2013-03-14 01:18:00,33.0,18.1,30.20,NNW,331,1.0,4.0,54,0.00,,,0.00,Wunderground v.1.15,2013-03-14 05:18:00,
2013-03-14 01:20:00,33.0,18.1,30.20,SSW,197,1.0,2.0,54,0.00,,,0.00,Wunderground v.1.15,2013-03-14 05:20:00,
2013-03-14 01:21:00,33.0,18.1,30.20,ENE,63,0.0,2.0,54,0.00,,,0.00,Wunderground v.1.15,2013-03-14 05:21:00,
2013-03-14 01:24:00,32.9,18.1,30.20,North,8,1.0,2.0,54,0.00,,,0.00,Wunderground v.1.15,2013-03-14 05:24:00,
2013-03-14 01:25:00,32.9,18.1,30.20,North,359,2.0,2.0,54,0.00,,,0.00,Wunderground v.1.15,2013-03-14 05:25:00,
2013-03-14 01:27:00,32.9,18.1,30.20,North,6,3.0,4.0,54,0.00,,,0.00,Wunderground v.1.15,2013-03-14 05:27:00,
2013-03-14 01:29:00,32.9,18.1,30.20,WNW,302,3.0,4.0,54,0.00,,,0.00,Wunderground v.1.15,2013-03-14 05:29:00,
2013-03-14 01:32:00,32.8,18.0,30.20,West,266,6.0,6.0,54,0.00,,,0.00,Wunderground v.1.15,2013-03-14 05:32:00,
2013-03-14 01:35:00,32.8,18.0,30.20,NNE,23,0.0,6.0,54,0.00,,,0.00,Wunderground v.1.15,2013-03-14 05:35:00,
2013-03-14 01:36:00,32.9,17.6,30.20,NE,35,2.0,6.0,53,0.00,,,0.00,Wunderground v.1.15,2013-03-14 05:36:00,
2013-03-14 01:38:00,32.9,17.6,30.20,ENE,68,2.0,6.0,53,0.00,,,0.00,Wunderground v.1.15,2013-03-14 05:38:00,
2013-03-14 01:41:00,32.9,17.6,30.20,NE,44,2.0,7.0,53,0.00,,,0.00,Wunderground v.1.15,2013-03-14 05:41:00,
2013-03-14 01:43:00,32.9,17.6,30.20,WNW,291,1.0,7.0,53,0.00,,,0.00,Wunderground v.1.15,2013-03-14 05:43:00,
2013-03-14 01:44:00,32.9,17.6,30.20,ENE,57,2.0,7.0,53,0.00,,,0.00,Wunderground v.1.15,2013-03-14 05:44:00,
2013-03-14 01:47:00,32.9,18.1,30.20,ENE,61,1.0,7.0,54,0.00,,,0.00,Wunderground v.1.15,2013-03-14 05:47:00,
2013-03-14 01:48:00,32.9,17.6,30.20,East,79,1.0,7.0,53,0.00,,,0.00,Wunderground v.1.15,2013-03-14 05:48:00,
2013-03-14 01:49:00,32.8,17.5,30.20,North,353,1.0,7.0,53,0.00,,,0.00,Wunderground v.1.15,2013-03-14 05:49:00,
2013-03-14 01:53:00,32.8,17.5,30.21,NNW,338,4.0,4.0,53,0.00,,,0.00,Wunderground v.1.15,2013-03-14 05:53:00,
2013-03-14 01:54:00,32.8,17.5,30.20,West,264,2.0,4.0,53,0.00,,,0.00,Wunderground v.1.15,2013-03-14 05:54:00,
2013-03-14 01:57:00,32.7,17.0,30.20,NE,53,2.0,4.0,52,0.00,,,0.00,Wunderground v.1.15,2013-03-14 05:57:00,
2013-03-14 01:58:00,32.7,17.4,30.20,NNE,17,2.0,4.0,53,0.00,,,0.00,Wunderground v.1.15,2013-03-14 05:58:00,
2013-03-14 01:59:00,32.7,17.4,30.20,NNE,27,1.0,4.0,53,0.00,,,0.00,Wunderground v.1.15,2013-03-14 05:59:00,
2013-03-14 02:01:00,32.6,17.8,30.20,NW,316,1.0,2.0,54,0.00,,,0.00,Wunderground v.1.15,2013-03-14 06:01:00,
2013-03-14 02:02:00,32.7,17.4,30.20,East,91,2.0,3.0,53,0.00,,,0.00,Wunderground v.1.15,2013-03-14 06:02:00,
2013-03-14 02:04:00,32.6,18.2,30.20,North,6,1.0,3.0,55,0.00,,,0.00,Wunderground v.1.15,2013-03-14 06:04:00,
2013-03-14 02:07:00,32.5,17.2,30.20,North,359,3.0,6.0,53,0.00,,,0.00,Wunderground v.1.15,2013-03-14 06:07:00,
2013-03-14 02:09:00,32.5,17.2,30.20,North,11,3.0,6.0,53,0.00,,,0.00,Wunderground v.1.15,2013-03-14 06:09:00,
2013-03-14 02:12:00,32.4,17.2,30.20,NE,46,4.0,4.0,53,0.00,,,0.00,Wunderground v.1.15,2013-03-14 06:12:00,
2013-03-14 02:14:00,32.3,17.1,30.20,West,268,1.0,4.0,53,0.00,,,0.00,Wunderground v.1.15,2013-03-14 06:14:00,
2013-03-14 02:17:00,32.2,17.0,30.20,ESE,108,4.0,6.0,53,0.00,,,0.00,Wunderground v.1.15,2013-03-14 06:17:00,
2013-03-14 02:19:00,32.2,16.5,30.20,NW,307,0.0,10.0,52,0.00,,,0.00,Wunderground v.1.15,2013-03-14 06:19:00,
2013-03-14 02:20:00,32.2,16.5,30.21,NNW,342,4.0,4.0,52,0.00,,,0.00,Wunderground v.1.15,2013-03-14 06:20:00,
2013-03-14 02:22:00,32.2,16.5,30.21,WNW,300,1.0,8.0,52,0.00,,,0.00,Wunderground v.1.15,2013-03-14 06:22:00,
2013-03-14 02:24:00,32.2,16.5,30.21,NE,42,1.0,8.0,52,0.00,,,0.00,Wunderground v.1.15,2013-03-14 06:24:00,
2013-03-14 02:25:00,32.2,16.5,30.20,NNE,30,2.0,8.0,52,0.00,,,0.00,Wunderground v.1.15,2013-03-14 06:25:00,
2013-03-14 02:27:00,32.2,16.5,30.20,NW,320,5.0,8.0,52,0.00,,,0.00,Wunderground v.1.15,2013-03-14 06:27:00,
2013-03-14 02:29:00,32.2,16.1,30.21,NE,38,2.0,8.0,51,0.00,,,0.00,Wunderground v.1.15,2013-03-14 06:29:00,
2013-03-14 02:30:00,32.2,16.5,30.21,NW,321,3.0,4.0,52,0.00,,,0.00,Wunderground v.1.15,2013-03-14 06:30:00,
2013-03-14 02:32:00,32.2,16.5,30.20,North,360,1.0,5.0,52,0.00,,,0.00,Wunderground v.1.15,2013-03-14 06:32:00,
2013-03-14 02:34:00,32.2,16.5,30.21,NW,311,4.0,11.0,52,0.00,,,0.00,Wunderground v.1.15,2013-03-14 06:34:00,
2013-03-14 02:35:00,32.2,16.1,30.21,WNW,297,2.0,11.0,51,0.00,,,0.00,Wunderground v.1.15,2013-03-14 06:35:00,
2013-03-14 02:37:00,32.2,16.5,30.21,NE,54,4.0,11.0,52,0.00,,,0.00,Wunderground v.1.15,2013-03-14 06:37:00,
2013-03-14 02:39:00,32.2,16.1,30.21,NNE,25,2.0,11.0,51,0.00,,,0.00,Wunderground v.1.15,2013-03-14 06:39:00,
2013-03-14 02:40:00,32.2,16.1,30.21,North,355,2.0,4.0,51,0.00,,,0.00,Wunderground v.1.15,2013-03-14 06:40:00,
2013-03-14 02:42:00,32.1,16.0,30.21,NNE,15,3.0,4.0,51,0.00,,,0.00,Wunderground v.1.15,2013-03-14 06:42:00,
2013-03-14 02:45:00,32.1,16.0,30.21,ESE,103,2.0,8.0,51,0.00,,,0.00,Wunderground v.1.15,2013-03-14 06:45:00,
2013-03-14 02:46:00,32.1,16.4,30.21,East,81,1.0,8.0,52,0.00,,,0.00,Wunderground v.1.15,2013-03-14 06:46:00,
2013-03-14 02:47:00,32.0,16.8,30.21,NNW,342,1.0,8.0,53,0.00,,,0.00,Wunderground v.1.15,2013-03-14 06:47:00,
2013-03-14 02:50:00,31.9,16.2,30.21,North,11,2.0,3.0,52,0.00,,,0.00,Wunderground v.1.15,2013-03-14 06:50:00,
2013-03-14 02:51:00,31.9,16.2,30.21,North,11,1.0,3.0,52,0.00,,,0.00,Wunderground v.1.15,2013-03-14 06:51:00,
2013-03-14 02:53:00,31.8,16.2,30.21,West,278,2.0,3.0,52,0.00,,,0.00,Wunderground v.1.15,2013-03-14 06:53:00,
2013-03-14 02:55:00,31.7,16.1,30.21,ESE,113,2.0,4.0,52,0.00,,,0.00,Wunderground v.1.15,2013-03-14 06:55:00,
2013-03-14 02:56:00,31.7,16.1,30.21,NE,50,5.0,6.0,52,0.00,,,0.00,Wunderground v.1.15,2013-03-14 06:56:00,
2013-03-14 02:58:00,31.7,16.1,30.21,ENE,65,3.0,6.0,52,0.00,,,0.00,Wunderground v.1.15,2013-03-14 06:58:00,
2013-03-14 03:00:00,31.7,16.1,30.22,NNE,15,1.0,2.0,52,0.00,,,0.00,Wunderground v.1.15,2013-03-14 07:00:00,
2013-03-14 03:01:00,31.7,16.1,30.22,NE,38,1.0,2.0,52,0.00,,,0.00,Wunderground v.1.15,2013-03-14 07:01:00,
2013-03-14 03:03:00,31.7,16.9,30.22,NNW,332,3.0,4.0,54,0.00,,,0.00,Wunderground v.1.15,2013-03-14 07:03:00,
2013-03-14 03:05:00,31.5,16.3,30.22,ENE,65,3.0,5.0,53,0.00,,,0.00,Wunderground v.1.15,2013-03-14 07:05:00,
2013-03-14 03:06:00,31.5,16.3,30.22,SSE,156,1.0,5.0,53,0.00,,,0.00,Wunderground v.1.15,2013-03-14 07:06:00,
2013-03-14 03:08:00,31.5,16.7,30.22,West,275,4.0,9.0,54,0.00,,,0.00,Wunderground v.1.15,2013-03-14 07:08:00,
2013-03-14 03:10:00,31.6,16.8,30.22,West,276,2.0,5.0,54,0.00,,,0.00,Wunderground v.1.15,2013-03-14 07:10:00,
2013-03-14 03:11:00,31.6,16.4,30.22,NE,54,4.0,5.0,53,0.00,,,0.00,Wunderground v.1.15,2013-03-14 07:11:00,
2013-03-14 03:13:00,31.7,16.5,30.22,ENE,68,1.0,6.0,53,0.00,,,0.00,Wunderground v.1.15,2013-03-14 07:13:00,
2013-03-14 03:15:00,31.6,16.8,30.21,ENE,58,1.0,6.0,54,0.00,,,0.00,Wunderground v.1.15,2013-03-14 07:15:00,
2013-03-14 03:16:00,31.6,16.8,30.21,ENE,77,1.0,6.0,54,0.00,,,0.00,Wunderground v.1.15,2013-03-14 07:16:00,
2013-03-14 03:18:00,31.5,16.7,30.21,ENE,71,0.0,6.0,54,0.00,,,0.00,Wunderground v.1.15,2013-03-14 07:18:00,
2013-03-14 03:21:00,31.4,16.7,30.22,NNE,13,4.0,4.0,54,0.00,,,0.00,Wunderground v.1.15,2013-03-14 07:21:00,
2013-03-14 03:22:00,31.3,16.6,30.22,NE,47,1.0,5.0,54,0.00,,,0.00,Wunderground v.1.15,2013-03-14 07:22:00,
2013-03-14 03:26:00,31.3,17.0,30.21,NE,35,2.0,2.0,55,0.00,,,0.00,Wunderground v.1.15,2013-03-14 07:26:00,
2013-03-14 03:27:00,31.3,17.0,30.21,NNE,23,4.0,7.0,55,0.00,,,0.00,Wunderground v.1.15,2013-03-14 07:27:00,
2013-03-14 03:31:00,31.3,17.0,30.21,NNE,15,2.0,7.0,55,0.00,,,0.00,Wunderground v.1.15,2013-03-14 07:31:00,
2013-03-14 03:33:00,31.2,16.9,30.22,NE,49,2.0,7.0,55,0.00,,,0.00,Wunderground v.1.15,2013-03-14 07:33:00,
2013-03-14 03:36:00,31.2,16.9,30.22,ENE,71,3.0,4.0,55,0.00,,,0.00,Wunderground v.1.15,2013-03-14 07:36:00,
2013-03-14 03:37:00,31.2,16.9,30.22,East,88,7.0,7.0,55,0.00,,,0.00,Wunderground v.1.15,2013-03-14 07:37:00,
2013-03-14 03:38:00,31.2,16.9,30.22,NNW,345,2.0,7.0,55,0.00,,,0.00,Wunderground v.1.15,2013-03-14 07:38:00,
2013-03-14 03:41:00,31.2,16.9,30.22,West,276,1.0,7.0,55,0.00,,,0.00,Wunderground v.1.15,2013-03-14 07:41:00,
2013-03-14 03:42:00,31.2,16.9,30.22,NNW,333,1.0,7.0,55,0.00,,,0.00,Wunderground v.1.15,2013-03-14 07:42:00,
2013-03-14 03:44:00,31.1,16.8,30.22,ENE,74,1.0,7.0,55,0.00,,,0.00,Wunderground v.1.15,2013-03-14 07:44:00,
2013-03-14 03:47:00,31.0,16.7,30.21,ENE,65,1.0,2.0,55,0.00,,,0.00,Wunderground v.1.15,2013-03-14 07:47:00,
2013-03-14 03:48:00,31.0,17.1,30.21,ENE,65,0.0,2.0,56,0.00,,,0.00,Wunderground v.1.15,2013-03-14 07:48:00,
2013-03-14 03:49:00,30.9,17.0,30.21,North,5,2.0,3.0,56,0.00,,,0.00,Wunderground v.1.15,2013-03-14 07:49:00,
2013-03-14 03:52:00,30.8,16.9,30.21,NNW,340,1.0,3.0,56,0.00,,,0.00,Wunderground v.1.15,2013-03-14 07:52:00,
2013-03-14 03:53:00,30.8,16.9,30.21,WNW,285,1.0,3.0,56,0.00,,,0.00,Wunderground v.1.15,2013-03-14 07:53:00,
2013-03-14 03:54:00,30.7,16.8,30.21,WNW,290,0.0,3.0,56,0.00,,,0.00,Wunderground v.1.15,2013-03-14 07:54:00,
2013-03-14 03:57:00,30.6,17.2,30.21,NNE,23,2.0,2.0,57,0.00,,,0.00,Wunderground v.1.15,2013-03-14 07:57:00,
2013-03-14 03:58:00,30.5,17.1,30.21,WNW,302,1.0,3.0,57,0.00,,,0.00,Wunderground v.1.15,2013-03-14 07:58:00,
2013-03-14 03:59:00,30.5,17.1,30.21,NW,312,3.0,4.0,57,0.00,,,0.00,Wunderground v.1.15,2013-03-14 07:59:00,
2013-03-14 04:02:00,30.5,17.5,30.21,WNW,298,2.0,3.0,58,0.00,,,0.00,Wunderground v.1.15,2013-03-14 08:02:00,
2013-03-14 04:03:00,30.5,17.5,30.21,WNW,298,1.0,3.0,58,0.00,,,0.00,Wunderground v.1.15,2013-03-14 08:03:00,
2013-03-14 04:04:00,30.4,17.0,30.21,WNW,294,3.0,3.0,57,0.00,,,0.00,Wunderground v.1.15,2013-03-14 08:04:00,
2013-03-14 04:08:00,30.4,17.0,30.21,WNW,289,2.0,3.0,57,0.00,,,0.00,Wunderground v.1.15,2013-03-14 08:08:00,
2013-03-14 04:09:00,30.3,16.9,30.21,NNE,13,3.0,3.0,57,0.00,,,0.00,Wunderground v.1.15,2013-03-14 08:09:00,
2013-03-14 04:13:00,30.3,17.3,30.21,WNW,297,2.0,5.0,58,0.00,,,0.00,Wunderground v.1.15,2013-03-14 08:13:00,
2013-03-14 04:15:00,30.3,17.3,30.21,WNW,283,1.0,5.0,58,0.00,,,0.00,Wunderground v.1.15,2013-03-14 08:15:00,
2013-03-14 04:18:00,30.2,17.2,30.22,WNW,302,5.0,5.0,58,0.00,,,0.00,Wunderground v.1.15,2013-03-14 08:18:00,
2013-03-14 04:20:00,30.2,16.8,30.21,West,280,1.0,2.0,57,0.00,,,0.00,Wunderground v.1.15,2013-03-14 08:20:00,
2013-03-14 04:23:00,30.1,16.7,30.22,WNW,298,2.0,3.0,57,0.00,,,0.00,Wunderground v.1.15,2013-03-14 08:23:00,
2013-03-14 04:25:00,30.2,16.8,30.22,WNW,303,1.0,3.0,57,0.00,,,0.00,Wunderground v.1.15,2013-03-14 08:25:00,
2013-03-14 04:28:00,30.3,16.9,30.21,WNW,298,1.0,5.0,57,0.00,,,0.00,Wunderground v.1.15,2013-03-14 08:28:00,
2013-03-14 04:29:00,30.3,16.9,30.21,WNW,293,1.0,5.0,57,0.00,,,0.00,Wunderground v.1.15,2013-03-14 08:29:00,
2013-03-14 04:30:00,30.3,16.9,30.21,WNW,293,0.0,2.0,57,0.00,,,0.00,Wunderground v.1.15,2013-03-14 08:30:00,
2013-03-14 04:33:00,30.2,16.8,30.21,NNE,29,0.0,2.0,57,0.00,,,0.00,Wunderground v.1.15,2013-03-14 08:33:00,
2013-03-14 04:34:00,30.2,16.8,30.21,NNE,28,1.0,2.0,57,0.00,,,0.00,Wunderground v.1.15,2013-03-14 08:34:00,
2013-03-14 04:35:00,30.2,16.8,30.22,NNW,338,2.0,2.0,57,0.00,,,0.00,Wunderground v.1.15,2013-03-14 08:35:00,
2013-03-14 04:38:00,30.1,16.7,30.22,NW,325,1.0,2.0,57,0.00,,,0.00,Wunderground v.1.15,2013-03-14 08:38:00,
2013-03-14 04:39:00,30.1,16.7,30.22,WNW,282,1.0,2.0,57,0.00,,,0.00,Wunderground v.1.15,2013-03-14 08:39:00,
2013-03-14 04:40:00,30.1,16.7,30.22,WNW,283,0.0,1.0,57,0.00,,,0.00,Wunderground v.1.15,2013-03-14 08:40:00,
2013-03-14 04:41:00,30.1,16.7,30.22,WNW,283,0.0,1.0,57,0.00,,,0.00,Wunderground v.1.15,2013-03-14 08:41:00,
2013-03-14 04:43:00,30.0,16.6,30.22,WNW,282,0.0,1.0,57,0.00,,,0.00,Wunderground v.1.15,2013-03-14 08:43:00,
2013-03-14 04:44:00,29.9,16.5,30.22,WNW,283,1.0,1.0,57,0.00,,,0.00,Wunderground v.1.15,2013-03-14 08:44:00,
2013-03-14 04:45:00,29.8,16.4,30.22,WNW,283,1.0,1.0,57,0.00,,,0.00,Wunderground v.1.15,2013-03-14 08:45:00,
2013-03-14 04:46:00,29.8,17.2,30.22,WNW,300,0.0,2.0,59,0.00,,,0.00,Wunderground v.1.15,2013-03-14 08:46:00,
2013-03-14 04:48:00,29.7,17.1,30.22,WNW,300,0.0,2.0,59,0.00,,,0.00,Wunderground v.1.15,2013-03-14 08:48:00,
2013-03-14 04:49:00,29.6,17.4,30.22,WNW,298,0.0,2.0,60,0.00,,,0.00,Wunderground v.1.15,2013-03-14 08:49:00,
2013-03-14 04:50:00,29.5,17.7,30.22,WNW,298,0.0,0.0,61,0.00,,,0.00,Wunderground v.1.15,2013-03-14 08:50:00,
2013-03-14 04:52:00,29.4,17.6,30.22,WNW,298,0.0,0.0,61,0.00,,,0.00,Wunderground v.1.15,2013-03-14 08:52:00,
2013-03-14 04:54:00,29.2,17.0,30.22,WNW,298,0.0,0.0,60,0.00,,,0.00,Wunderground v.1.15,2013-03-14 08:54:00,
2013-03-14 04:55:00,29.1,16.9,30.22,WNW,298,0.0,0.0,60,0.00,,,0.00,Wunderground v.1.15,2013-03-14 08:55:00,
2013-03-14 04:57:00,28.9,17.1,30.22,WNW,300,0.0,0.0,61,0.00,,,0.00,Wunderground v.1.15,2013-03-14 08:57:00,
2013-03-14 04:59:00,28.8,17.0,30.22,WNW,297,0.0,1.0,61,0.00,,,0.00,Wunderground v.1.15,2013-03-14 08:59:00,
2013-03-14 05:00:00,28.7,16.9,30.22,WNW,300,1.0,1.0,61,0.00,,,0.00,Wunderground v.1.15,2013-03-14 09:00:00,
2013-03-14 05:01:00,28.7,16.6,30.22,West,270,1.0,1.0,60,0.00,,,0.00,Wunderground v.1.15,2013-03-14 09:01:00,
2013-03-14 05:02:00,28.6,16.5,30.22,West,270,1.0,1.0,60,0.00,,,0.00,Wunderground v.1.15,2013-03-14 09:02:00,
2013-03-14 05:04:00,28.6,16.5,30.22,West,267,1.0,1.0,60,0.00,,,0.00,Wunderground v.1.15,2013-03-14 09:04:00,
2013-03-14 05:05:00,28.6,16.8,30.22,West,264,0.0,1.0,61,0.00,,,0.00,Wunderground v.1.15,2013-03-14 09:05:00,
2013-03-14 05:06:00,28.6,16.8,30.22,West,259,1.0,1.0,61,0.00,,,0.00,Wunderground v.1.15,2013-03-14 09:06:00,
2013-03-14 05:07:00,28.6,16.5,30.22,WSW,248,1.0,1.0,60,0.00,,,0.00,Wunderground v.1.15,2013-03-14 09:07:00,
2013-03-14 05:09:00,28.7,16.9,30.22,WSW,255,2.0,2.0,61,0.00,,,0.00,Wunderground v.1.15,2013-03-14 09:09:00,
2013-03-14 05:10:00,28.8,17.0,30.22,WSW,241,0.0,1.0,61,0.00,,,0.00,Wunderground v.1.15,2013-03-14 09:10:00,
2013-03-14 05:12:00,28.8,16.6,30.22,WSW,242,1.0,1.0,60,0.00,,,0.00,Wunderground v.1.15,2013-03-14 09:12:00,
2013-03-14 05:14:00,28.9,17.1,30.22,WSW,238,0.0,1.0,61,0.00,,,0.00,Wunderground v.1.15,2013-03-14 09:14:00,
2013-03-14 05:15:00,28.9,16.7,30.22,SW,236,0.0,1.0,60,0.00,,,0.00,Wunderground v.1.15,2013-03-14 09:15:00,
2013-03-14 05:17:00,28.9,17.1,30.22,SW,236,0.0,1.0,61,0.00,,,0.00,Wunderground v.1.15,2013-03-14 09:17:00,
2013-03-14 05:19:00,28.8,17.0,30.22,SW,236,0.0,1.0,61,0.00,,,0.00,Wunderground v.1.15,2013-03-14 09:19:00,
2013-03-14 05:20:00,28.8,17.0,30.22,SW,236,0.0,0.0,61,0.00,,,0.00,Wunderground v.1.15,2013-03-14 09:20:00,
2013-03-14 05:22:00,28.6,16.8,30.23,SW,236,0.0,1.0,61,0.00,,,0.00,Wunderground v.1.15,2013-03-14 09:22:00,
2013-03-14 05:23:00,28.6,16.8,30.23,SW,236,0.0,1.0,61,0.00,,,0.00,Wunderground v.1.15,2013-03-14 09:23:00,
2013-03-14 05:25:00,28.6,16.8,30.23,SW,236,1.0,1.0,61,0.00,,,0.00,Wunderground v.1.15,2013-03-14 09:25:00,
2013-03-14 05:27:00,28.6,16.8,30.23,SW,236,1.0,1.0,61,0.00,,,0.00,Wunderground v.1.15,2013-03-14 09:27:00,
2013-03-14 05:28:00,28.6,16.8,30.23,SW,236,1.0,1.0,61,0.00,,,0.00,Wunderground v.1.15,2013-03-14 09:28:00,
2013-03-14 05:30:00,28.6,16.8,30.23,SW,235,1.0,1.0,61,0.00,,,0.00,Wunderground v.1.15,2013-03-14 09:30:00,
2013-03-14 05:32:00,28.6,16.8,30.23,SW,235,0.0,1.0,61,0.00,,,0.00,Wunderground v.1.15,2013-03-14 09:32:00,
2013-03-14 05:33:00,28.6,16.8,30.23,SW,235,0.0,1.0,61,0.00,,,0.00,Wunderground v.1.15,2013-03-14 09:33:00,
2013-03-14 05:35:00,28.6,16.8,30.23,SW,234,0.0,1.0,61,0.00,,,0.00,Wunderground v.1.15,2013-03-14 09:35:00,
2013-03-14 05:36:00,28.5,16.7,30.23,SW,235,0.0,1.0,61,0.00,,,0.00,Wunderground v.1.15,2013-03-14 09:36:00,
2013-03-14 05:37:00,28.5,17.1,30.23,SW,235,0.0,1.0,62,0.00,,,0.00,Wunderground v.1.15,2013-03-14 09:37:00,
2013-03-14 05:38:00,28.4,17.0,30.23,SW,235,0.0,1.0,62,0.00,,,0.00,Wunderground v.1.15,2013-03-14 09:38:00,
2013-03-14 05:40:00,28.3,16.6,30.23,SW,235,0.0,0.0,61,0.00,,,0.00,Wunderground v.1.15,2013-03-14 09:40:00,
2013-03-14 05:41:00,28.3,16.6,30.23,SW,234,0.0,0.0,61,0.00,,,0.00,Wunderground v.1.15,2013-03-14 09:41:00,
2013-03-14 05:42:00,28.2,17.2,30.23,SW,235,0.0,0.0,63,0.00,,,0.00,Wunderground v.1.15,2013-03-14 09:42:00,
2013-03-14 05:43:00,28.1,17.1,30.23,SW,234,0.0,0.0,63,0.00,,,0.00,Wunderground v.1.15,2013-03-14 09:43:00,
2013-03-14 05:45:00,28.0,17.0,30.23,SW,235,0.0,0.0,63,0.00,,,0.00,Wunderground v.1.15,2013-03-14 09:45:00,
2013-03-14 05:46:00,28.0,17.0,30.23,SW,235,0.0,0.0,63,0.00,,,0.00,Wunderground v.1.15,2013-03-14 09:46:00,
2013-03-14 05:48:00,27.9,16.9,30.23,SW,235,0.0,0.0,63,0.00,,,0.00,Wunderground v.1.15,2013-03-14 09:48:00,
2013-03-14 05:50:00,27.6,17.0,30.23,SW,235,0.0,0.0,64,0.00,,,0.00,Wunderground v.1.15,2013-03-14 09:50:00,
2013-03-14 05:51:00,27.6,17.0,30.23,SW,235,0.0,0.0,64,0.00,,,0.00,Wunderground v.1.15,2013-03-14 09:51:00,
2013-03-14 05:53:00,27.5,17.3,30.24,SW,235,0.0,0.0,65,0.00,,,0.00,Wunderground v.1.15,2013-03-14 09:53:00,
2013-03-14 05:55:00,27.3,17.1,30.24,SW,235,0.0,0.0,65,0.00,,,0.00,Wunderground v.1.15,2013-03-14 09:55:00,
2013-03-14 05:57:00,27.3,17.1,30.24,SW,235,0.0,0.0,65,0.00,,,0.00,Wunderground v.1.15,2013-03-14 09:57:00,
2013-03-14 05:58:00,27.2,17.0,30.24,SW,234,0.0,0.0,65,0.00,,,0.00,Wunderground v.1.15,2013-03-14 09:58:00,
2013-03-14 06:01:00,27.0,16.8,30.24,SW,234,0.0,0.0,65,0.00,,,0.00,Wunderground v.1.15,2013-03-14 10:01:00,
2013-03-14 06:02:00,26.8,16.6,30.24,SW,234,0.0,0.0,65,0.00,,,0.00,Wunderground v.1.15,2013-03-14 10:02:00,
2013-03-14 06:03:00,26.8,16.6,30.24,SW,235,0.0,0.0,65,0.00,,,0.00,Wunderground v.1.15,2013-03-14 10:03:00,
2013-03-14 06:04:00,26.8,16.6,30.24,SW,235,0.0,0.0,65,0.00,,,0.00,Wunderground v.1.15,2013-03-14 10:04:00,
2013-03-14 06:06:00,26.7,16.5,30.24,SW,235,0.0,0.0,65,0.00,,,0.00,Wunderground v.1.15,2013-03-14 10:06:00,
2013-03-14 06:07:00,26.7,16.5,30.24,SW,235,0.0,0.0,65,0.00,,,0.00,Wunderground v.1.15,2013-03-14 10:07:00,
2013-03-14 06:08:00,26.7,16.5,30.24,SW,235,0.0,0.0,65,0.00,,,0.00,Wunderground v.1.15,2013-03-14 10:08:00,
2013-03-14 06:09:00,26.7,16.5,30.24,SW,235,0.0,0.0,65,0.00,,,0.00,Wunderground v.1.15,2013-03-14 10:09:00,
2013-03-14 06:11:00,26.7,16.9,30.24,SW,235,0.0,0.0,66,0.00,,,0.00,Wunderground v.1.15,2013-03-14 10:11:00,
2013-03-14 06:12:00,26.7,16.9,30.24,SW,235,0.0,0.0,66,0.00,,,0.00,Wunderground v.1.15,2013-03-14 10:12:00,
2013-03-14 06:14:00,26.8,17.0,30.25,SW,235,0.0,0.0,66,0.00,,,0.00,Wunderground v.1.15,2013-03-14 10:14:00,
2013-03-14 06:16:00,26.9,16.7,30.25,SW,235,0.0,0.0,65,0.00,,,0.00,Wunderground v.1.15,2013-03-14 10:16:00,
2013-03-14 06:17:00,27.1,16.5,30.25,SW,234,0.0,0.0,64,0.00,,,0.00,Wunderground v.1.15,2013-03-14 10:17:00,
2013-03-14 06:19:00,27.2,16.3,30.25,SW,235,0.0,0.0,63,0.00,,,0.00,Wunderground v.1.15,2013-03-14 10:19:00,
2013-03-14 06:21:00,27.5,16.5,30.25,SW,236,1.0,2.0,63,0.00,,,0.00,Wunderground v.1.15,2013-03-14 10:21:00,
2013-03-14 06:22:00,27.7,16.4,30.25,SW,229,2.0,2.0,62,0.00,,,0.00,Wunderground v.1.15,2013-03-14 10:22:00,
2013-03-14 06:24:00,27.9,16.6,30.25,WSW,247,2.0,2.0,62,0.00,,,0.00,Wunderground v.1.15,2013-03-14 10:24:00,
2013-03-14 06:25:00,28.0,16.3,30.25,WSW,242,2.0,3.0,61,0.00,,,0.00,Wunderground v.1.15,2013-03-14 10:25:00,
2013-03-14 06:26:00,28.2,16.5,30.25,SW,225,3.0,3.0,61,0.00,,,0.00,Wunderground v.1.15,2013-03-14 10:26:00,
2013-03-14 06:27:00,28.3,16.6,30.25,WSW,238,1.0,3.0,61,0.00,,,0.00,Wunderground v.1.15,2013-03-14 10:27:00,
2013-03-14 06:29:00,28.4,16.3,30.25,SW,228,2.0,3.0,60,0.00,,,0.00,Wunderground v.1.15,2013-03-14 10:29:00,
2013-03-14 06:30:00,28.5,16.4,30.25,WSW,238,1.0,2.0,60,0.00,,,0.00,Wunderground v.1.15,2013-03-14 10:30:00,
2013-03-14 06:31:00,28.6,16.5,30.25,SW,233,2.0,2.0,60,0.00,,,0.00,Wunderground v.1.15,2013-03-14 10:31:00,
2013-03-14 06:33:00,28.6,16.5,30.25,WSW,249,1.0,2.0,60,0.00,,,0.00,Wunderground v.1.15,2013-03-14 10:33:00,
2013-03-14 06:34:00,28.6,16.8,30.25,SW,236,1.0,2.0,61,0.00,,,0.00,Wunderground v.1.15,2013-03-14 10:34:00,
2013-03-14 06:35:00,28.6,16.8,30.25,SW,236,0.0,2.0,61,0.00,,,0.00,Wunderground v.1.15,2013-03-14 10:35:00,
2013-03-14 06:36:00,28.6,16.8,30.25,WSW,255,0.0,2.0,61,0.00,,,0.00,Wunderground v.1.15,2013-03-14 10:36:00,
2013-03-14 06:38:00,28.5,16.7,30.25,WSW,255,0.0,2.0,61,0.00,,,0.00,Wunderground v.1.15,2013-03-14 10:38:00,
2013-03-14 06:40:00,28.4,16.7,30.25,WSW,255,0.0,2.0,61,0.00,,,0.00,Wunderground v.1.15,2013-03-14 10:40:00,
2013-03-14 06:42:00,28.3,17.3,30.25,WSW,254,0.0,1.0,63,0.00,,,0.00,Wunderground v.1.15,2013-03-14 10:42:00,
2013-03-14 06:43:00,28.2,17.2,30.25,WSW,255,0.0,1.0,63,0.00,,,0.00,Wunderground v.1.15,2013-03-14 10:43:00,
2013-03-14 06:45:00,28.0,17.0,30.25,WSW,254,0.0,1.0,63,0.00,,,0.00,Wunderground v.1.15,2013-03-14 10:45:00,
2013-03-14 06:47:00,27.9,17.3,30.25,WSW,255,0.0,1.0,64,0.00,,,0.00,Wunderground v.1.15,2013-03-14 10:47:00,
2013-03-14 06:48:00,27.8,17.2,30.25,WSW,255,0.0,1.0,64,0.00,,,0.00,Wunderground v.1.15,2013-03-14 10:48:00,
2013-03-14 06:50:00,27.6,16.6,30.25,WSW,255,0.0,0.0,63,0.00,,,0.00,Wunderground v.1.15,2013-03-14 10:50:00,
2013-03-14 06:52:00,27.5,16.5,30.25,WSW,255,0.0,1.0,63,0.00,,,0.00,Wunderground v.1.15,2013-03-14 10:52:00,
2013-03-14 06:54:00,27.5,16.9,30.25,WSW,254,0.0,1.0,64,0.00,,,0.00,Wunderground v.1.15,2013-03-14 10:54:00,
2013-03-14 06:55:00,27.4,16.8,30.25,WSW,255,0.0,1.0,64,0.00,,,0.00,Wunderground v.1.15,2013-03-14 10:55:00,
2013-03-14 06:57:00,27.2,16.6,30.26,WSW,255,0.0,1.0,64,0.00,,,0.00,Wunderground v.1.15,2013-03-14 10:57:00,
2013-03-14 06:59:00,27.1,16.5,30.26,WSW,254,0.0,1.0,64,0.00,,,0.00,Wunderground v.1.15,2013-03-14 10:59:00,
2013-03-14 07:00:00,26.9,16.7,30.26,WSW,255,0.0,0.0,65,0.00,,,0.00,Wunderground v.1.15,2013-03-14 11:00:00,
2013-03-14 07:01:00,26.9,16.7,30.26,WSW,255,0.0,0.0,65,0.00,,,0.00,Wunderground v.1.15,2013-03-14 11:01:00,
2013-03-14 07:03:00,26.7,16.5,30.26,WSW,255,0.0,0.0,65,0.00,,,0.00,Wunderground v.1.15,2013-03-14 11:03:00,
2013-03-14 07:04:00,26.5,16.3,30.26,WSW,255,0.0,0.0,65,0.00,,,0.00,Wunderground v.1.15,2013-03-14 11:04:00,
2013-03-14 07:06:00,26.4,16.6,30.26,WSW,255,0.0,0.0,66,0.00,,,0.00,Wunderground v.1.15,2013-03-14 11:06:00,
2013-03-14 07:08:00,26.4,16.6,30.26,WSW,254,0.0,0.0,66,0.00,,,0.00,Wunderground v.1.15,2013-03-14 11:08:00,
2013-03-14 07:09:00,26.4,16.6,30.26,WSW,255,0.0,0.0,66,0.00,,,0.00,Wunderground v.1.15,2013-03-14 11:09:00,
2013-03-14 07:11:00,26.4,16.6,30.26,WSW,254,0.0,0.0,66,0.00,,,0.00,Wunderground v.1.15,2013-03-14 11:11:00,
2013-03-14 07:13:00,26.4,16.6,30.26,SW,226,0.0,0.0,66,0.00,,,0.00,Wunderground v.1.15,2013-03-14 11:13:00,
2013-03-14 07:14:00,26.5,16.7,30.26,SW,228,0.0,0.0,66,0.00,,,0.00,Wunderground v.1.15,2013-03-14 11:14:00,
2013-03-14 07:16:00,26.6,16.8,30.27,SW,228,0.0,0.0,66,0.00,,,0.00,Wunderground v.1.15,2013-03-14 11:16:00,
2013-03-14 07:18:00,26.6,16.8,30.26,SW,228,0.0,0.0,66,0.00,,,0.00,Wunderground v.1.15,2013-03-14 11:18:00,
2013-03-14 07:19:00,26.7,16.9,30.27,SW,233,0.0,0.0,66,0.00,,,0.00,Wunderground v.1.15,2013-03-14 11:19:00,
2013-03-14 07:21:00,26.8,17.0,30.27,SW,233,0.0,0.0,66,0.00,,,0.00,Wunderground v.1.15,2013-03-14 11:21:00,
2013-03-14 07:23:00,26.8,17.0,30.27,SW,236,0.0,0.0,66,0.00,,,0.00,Wunderground v.1.15,2013-03-14 11:23:00,
2013-03-14 07:24:00,26.9,17.0,30.27,SW,236,0.0,0.0,66,0.00,,,0.00,Wunderground v.1.15,2013-03-14 11:24:00,
2013-03-14 07:26:00,26.9,17.0,30.27,WSW,248,0.0,0.0,66,0.00,,,0.00,Wunderground v.1.15,2013-03-14 11:26:00,
2013-03-14 07:27:00,26.9,17.0,30.27,WSW,248,0.0,0.0,66,0.00,,,0.00,Wunderground v.1.15,2013-03-14 11:27:00,
2013-03-14 07:29:00,26.9,17.0,30.27,WSW,247,0.0,0.0,66,0.00,,,0.00,Wunderground v.1.15,2013-03-14 11:29:00,
2013-03-14 07:30:00,26.9,17.0,30.27,WSW,247,0.0,0.0,66,0.00,,,0.00,Wunderground v.1.15,2013-03-14 11:30:00,
2013-03-14 07:32:00,26.8,17.3,30.27,WSW,247,0.0,0.0,67,0.00,,,0.00,Wunderground v.1.15,2013-03-14 11:32:00,
2013-03-14 07:34:00,26.7,17.2,30.26,WSW,255,0.0,0.0,67,0.00,,,0.00,Wunderground v.1.15,2013-03-14 11:34:00,
2013-03-14 07:35:00,26.6,17.1,30.27,WSW,249,0.0,0.0,67,0.00,,,0.00,Wunderground v.1.15,2013-03-14 11:35:00,
2013-03-14 07:37:00,26.5,17.0,30.26,WSW,249,0.0,0.0,67,0.00,,,0.00,Wunderground v.1.15,2013-03-14 11:37:00,
2013-03-14 07:39:00,26.5,17.4,30.27,WSW,242,0.0,0.0,68,0.00,,,0.00,Wunderground v.1.15,2013-03-14 11:39:00,
2013-03-14 07:40:00,26.5,17.4,30.27,West,267,1.0,1.0,68,0.00,,,0.00,Wunderground v.1.15,2013-03-14 11:40:00,
2013-03-14 07:42:00,26.5,17.7,30.27,West,266,0.0,1.0,69,0.00,,,0.00,Wunderground v.1.15,2013-03-14 11:42:00,
2013-03-14 07:44:00,26.5,17.4,30.27,West,271,1.0,2.0,68,0.00,,,0.00,Wunderground v.1.15,2013-03-14 11:44:00,
2013-03-14 07:45:00,26.5,17.4,30.27,West,270,0.0,2.0,68,0.00,,,0.00,Wunderground v.1.15,2013-03-14 11:45:00,
2013-03-14 07:47:00,26.5,17.4,30.27,West,270,0.0,2.0,68,0.00,,,0.00,Wunderground v.1.15,2013-03-14 11:47:00,
2013-03-14 07:50:00,26.5,17.4,30.27,SW,233,1.0,1.0,68,0.00,,,0.00,Wunderground v.1.15,2013-03-14 11:50:00,
2013-03-14 07:52:00,26.6,17.5,30.27,SW,218,0.0,2.0,68,0.00,,,0.00,Wunderground v.1.15,2013-03-14 11:52:00,
2013-03-14 07:55:00,26.6,17.5,30.27,SW,219,0.0,2.0,68,0.00,,,0.00,Wunderground v.1.15,2013-03-14 11:55:00,
2013-03-14 07:58:00,26.6,17.1,30.27,SW,218,0.0,2.0,67,0.00,,,0.00,Wunderground v.1.15,2013-03-14 11:58:00,
2013-03-14 08:00:00,26.7,17.2,30.27,South,173,0.0,0.0,67,0.00,,,0.00,Wunderground v.1.15,2013-03-14 12:00:00,
2013-03-14 08:03:00,26.8,17.3,30.28,SSE,164,0.0,0.0,67,0.00,,,0.00,Wunderground v.1.15,2013-03-14 12:03:00,
2013-03-14 08:05:00,26.9,17.4,30.28,SSE,163,0.0,0.0,67,0.00,,,0.00,Wunderground v.1.15,2013-03-14 12:05:00,
2013-03-14 08:07:00,26.9,17.0,30.28,SSE,163,0.0,0.0,66,0.00,,,0.00,Wunderground v.1.15,2013-03-14 12:07:00,
2013-03-14 08:08:00,26.9,17.0,30.28,SSE,164,0.0,0.0,66,0.00,,,0.00,Wunderground v.1.15,2013-03-14 12:08:00,
2013-03-14 08:10:00,27.0,17.5,30.28,SSE,163,0.0,0.0,67,0.00,,,0.00,Wunderground v.1.15,2013-03-14 12:10:00,
2013-03-14 08:12:00,27.0,17.1,30.28,SSE,164,0.0,0.0,66,0.00,,,0.00,Wunderground v.1.15,2013-03-14 12:12:00,
2013-03-14 08:13:00,27.1,17.2,30.28,SSE,163,0.0,0.0,66,0.00,,,0.00,Wunderground v.1.15,2013-03-14 12:13:00,
2013-03-14 08:15:00,27.2,17.0,30.28,SW,226,0.0,0.0,65,0.00,,,0.00,Wunderground v.1.15,2013-03-14 12:15:00,
2013-03-14 08:17:00,27.3,17.1,30.28,SW,232,1.0,1.0,65,0.00,,,0.00,Wunderground v.1.15,2013-03-14 12:17:00,
2013-03-14 08:18:00,27.4,17.2,30.28,SW,232,0.0,1.0,65,0.00,,,0.00,Wunderground v.1.15,2013-03-14 12:18:00,
2013-03-14 08:20:00,27.5,17.3,30.28,SW,232,1.0,1.0,65,0.00,,,0.00,Wunderground v.1.15,2013-03-14 12:20:00,
2013-03-14 08:22:00,27.5,16.9,30.28,SW,232,1.0,1.0,64,0.00,,,0.00,Wunderground v.1.15,2013-03-14 12:22:00,
2013-03-14 08:23:00,27.6,17.0,30.28,SW,225,1.0,1.0,64,0.00,,,0.00,Wunderground v.1.15,2013-03-14 12:23:00,
2013-03-14 08:24:00,27.7,17.1,30.28,SW,232,1.0,1.0,64,0.00,,,0.00,Wunderground v.1.15,2013-03-14 12:24:00,
2013-03-14 08:25:00,27.8,17.6,30.28,WSW,245,1.0,2.0,65,0.00,,,0.00,Wunderground v.1.15,2013-03-14 12:25:00,
2013-03-14 08:27:00,27.9,17.3,30.28,WSW,245,0.0,2.0,64,0.00,,,0.00,Wunderground v.1.15,2013-03-14 12:27:00,
2013-03-14 08:28:00,28.0,17.4,30.28,WSW,245,1.0,2.0,64,0.00,,,0.00,Wunderground v.1.15,2013-03-14 12:28:00,
2013-03-14 08:29:00,28.1,17.5,30.28,WSW,245,1.0,2.0,64,0.00,,,0.00,Wunderground v.1.15,2013-03-14 12:29:00,
2013-03-14 08:30:00,28.2,17.6,30.28,WSW,245,0.0,1.0,64,0.00,,,0.00,Wunderground v.1.15,2013-03-14 12:30:00,
2013-03-14 08:33:00,28.4,17.4,30.29,WSW,245,0.0,1.0,63,0.00,,,0.00,Wunderground v.1.15,2013-03-14 12:33:00,
2013-03-14 08:35:00,28.6,17.6,30.29,WSW,245,0.0,1.0,63,0.00,,,0.00,Wunderground v.1.15,2013-03-14 12:35:00,
2013-03-14 08:38:00,28.8,17.4,30.29,WSW,238,1.0,1.0,62,0.00,,,0.00,Wunderground v.1.15,2013-03-14 12:38:00,
2013-03-14 08:40:00,28.9,17.5,30.29,SW,235,2.0,2.0,62,0.00,,,0.00,Wunderground v.1.15,2013-03-14 12:40:00,
2013-03-14 08:43:00,29.1,17.7,30.29,WSW,250,1.0,2.0,62,0.00,,,0.00,Wunderground v.1.15,2013-03-14 12:43:00,
2013-03-14 08:45:00,29.2,17.4,30.29,WSW,250,1.0,2.0,61,0.00,,,0.00,Wunderground v.1.15,2013-03-14 12:45:00,
2013-03-14 08:46:00,29.3,17.5,30.29,WSW,250,0.0,2.0,61,0.00,,,0.00,Wunderground v.1.15,2013-03-14 12:46:00,
2013-03-14 08:48:00,29.5,17.7,30.29,West,264,1.0,2.0,61,0.00,,,0.00,Wunderground v.1.15,2013-03-14 12:48:00,
2013-03-14 08:49:00,29.5,17.7,30.29,West,264,1.0,2.0,61,0.00,,,0.00,Wunderground v.1.15,2013-03-14 12:49:00,
2013-03-14 08:50:00,29.7,17.9,30.29,West,264,0.0,1.0,61,0.00,,,0.00,Wunderground v.1.15,2013-03-14 12:50:00,
2013-03-14 08:52:00,29.8,18.0,30.29,WSW,252,1.0,1.0,61,0.00,,,0.00,Wunderground v.1.15,2013-03-14 12:52:00,
2013-03-14 08:53:00,30.0,17.8,30.29,SW,229,0.0,2.0,60,0.00,,,0.00,Wunderground v.1.15,2013-03-14 12:53:00,
2013-03-14 08:54:00,30.0,17.8,30.29,SW,229,0.0,2.0,60,0.00,,,0.00,Wunderground v.1.15,2013-03-14 12:54:00,
2013-03-14 08:55:00,30.1,17.9,30.29,SW,232,0.0,2.0,60,0.00,,,0.00,Wunderground v.1.15,2013-03-14 12:55:00,
2013-03-14 08:57:00,30.2,18.4,30.29,SW,232,1.0,2.0,61,0.00,,,0.00,Wunderground v.1.15,2013-03-14 12:57:00,
2013-03-14 08:59:00,30.4,18.2,30.29,West,275,0.0,3.0,60,0.00,,,0.00,Wunderground v.1.15,2013-03-14 12:59:00,
2013-03-14 09:00:00,30.6,18.3,30.30,WSW,242,1.0,1.0,60,0.00,,,0.00,Wunderground v.1.15,2013-03-14 13:00:00,
2013-03-14 09:02:00,30.8,18.5,30.29,SW,224,2.0,2.0,60,0.00,,,0.00,Wunderground v.1.15,2013-03-14 13:02:00,
2013-03-14 09:04:00,30.9,18.2,30.29,SW,218,1.0,4.0,59,0.00,,,0.00,Wunderground v.1.15,2013-03-14 13:04:00,
2013-03-14 09:05:00,31.0,18.7,30.29,WSW,255,3.0,4.0,60,0.00,,,0.00,Wunderground v.1.15,2013-03-14 13:05:00,
2013-03-14 09:07:00,31.1,18.4,30.29,NW,319,1.0,4.0,59,0.00,,,0.00,Wunderground v.1.15,2013-03-14 13:07:00,
2013-03-14 09:09:00,31.4,18.7,30.29,WNW,288,3.0,4.0,59,0.00,,,0.00,Wunderground v.1.15,2013-03-14 13:09:00,
2013-03-14 09:10:00,31.5,18.8,30.29,WNW,294,1.0,2.0,59,0.00,,,0.00,Wunderground v.1.15,2013-03-14 13:10:00,
2013-03-14 09:12:00,31.8,19.1,30.29,WNW,285,0.0,2.0,59,0.00,,,0.00,Wunderground v.1.15,2013-03-14 13:12:00,
2013-03-14 09:15:00,32.1,19.4,30.29,West,277,1.0,2.0,59,0.00,,,0.00,Wunderground v.1.15,2013-03-14 13:15:00,
2013-03-14 09:16:00,32.3,18.3,30.30,West,269,1.0,8.0,56,0.00,,,0.00,Wunderground v.1.15,2013-03-14 13:16:00,
2013-03-14 09:17:00,32.4,18.0,30.30,East,89,1.0,8.0,55,0.00,,,0.00,Wunderground v.1.15,2013-03-14 13:17:00,
2013-03-14 09:20:00,32.6,17.3,30.30,WNW,285,3.0,5.0,53,0.00,,,0.00,Wunderground v.1.15,2013-03-14 13:20:00,
2013-03-14 09:21:00,32.6,17.3,30.30,WNW,287,5.0,7.0,53,0.00,,,0.00,Wunderground v.1.15,2013-03-14 13:21:00,
2013-03-14 09:23:00,32.7,17.0,30.30,West,260,1.0,10.0,52,0.00,,,0.00,Wunderground v.1.15,2013-03-14 13:23:00,
2013-03-14 09:25:00,32.7,17.0,30.30,WNW,302,3.0,10.0,52,0.00,,,0.00,Wunderground v.1.15,2013-03-14 13:25:00,
2013-03-14 09:26:00,32.8,17.1,30.30,NW,305,5.0,10.0,52,0.00,,,0.00,Wunderground v.1.15,2013-03-14 13:26:00,
2013-03-14 09:28:00,32.9,17.2,30.30,WSW,250,3.0,10.0,52,0.00,,,0.00,Wunderground v.1.15,2013-03-14 13:28:00,
2013-03-14 09:30:00,33.1,17.4,30.30,NNE,27,4.0,4.0,52,0.00,,,0.00,Wunderground v.1.15,2013-03-14 13:30:00,
2013-03-14 09:31:00,33.3,17.5,30.30,NW,305,3.0,7.0,52,0.00,,,0.00,Wunderground v.1.15,2013-03-14 13:31:00,
2013-03-14 09:33:00,33.4,17.2,30.30,West,277,4.0,7.0,51,0.00,,,0.00,Wunderground v.1.15,2013-03-14 13:33:00,
2013-03-14 09:35:00,33.5,16.8,30.30,WNW,300,6.0,7.0,50,0.00,,,0.00,Wunderground v.1.15,2013-03-14 13:35:00,
2013-03-14 09:36:00,33.5,16.8,30.30,West,277,5.0,11.0,50,0.00,,,0.00,Wunderground v.1.15,2013-03-14 13:36:00,
2013-03-14 09:38:00,33.5,16.4,30.30,West,266,3.0,11.0,49,0.00,,,0.00,Wunderground v.1.15,2013-03-14 13:38:00,
2013-03-14 09:40:00,33.6,16.9,30.30,NW,321,4.0,8.0,50,0.00,,,0.00,Wunderground v.1.15,2013-03-14 13:40:00,
2013-03-14 09:41:00,33.7,17.0,30.30,WNW,291,3.0,9.0,50,0.00,,,0.00,Wunderground v.1.15,2013-03-14 13:41:00,
2013-03-14 09:44:00,33.8,17.1,30.30,WNW,284,6.0,9.0,50,0.00,,,0.00,Wunderground v.1.15,2013-03-14 13:44:00,
2013-03-14 09:45:00,34.0,17.3,30.30,West,271,2.0,9.0,50,0.00,,,0.00,Wunderground v.1.15,2013-03-14 13:45:00,
2013-03-14 09:46:00,34.0,17.3,30.30,West,270,1.0,9.0,50,0.00,,,0.00,Wunderground v.1.15,2013-03-14 13:46:00,
2013-03-14 09:47:00,34.1,17.4,30.30,WSW,238,4.0,9.0,50,0.00,,,0.00,Wunderground v.1.15,2013-03-14 13:47:00,
2013-03-14 09:49:00,34.2,16.5,30.30,NNW,328,5.0,9.0,48,0.00,,,0.00,Wunderground v.1.15,2013-03-14 13:49:00,
2013-03-14 09:50:00,34.2,17.0,30.30,West,278,2.0,3.0,49,0.00,,,0.00,Wunderground v.1.15,2013-03-14 13:50:00,
2013-03-14 09:51:00,34.2,17.0,30.30,WNW,300,2.0,3.0,49,0.00,,,0.00,Wunderground v.1.15,2013-03-14 13:51:00,
2013-03-14 09:52:00,34.3,17.1,30.30,ENE,58,4.0,5.0,49,0.00,,,0.00,Wunderground v.1.15,2013-03-14 13:52:00,
2013-03-14 09:54:00,34.5,17.3,30.30,West,276,6.0,7.0,49,0.00,,,0.00,Wunderground v.1.15,2013-03-14 13:54:00,
2013-03-14 09:55:00,34.6,16.9,30.30,WSW,245,1.0,7.0,48,0.00,,,0.00,Wunderground v.1.15,2013-03-14 13:55:00,
2013-03-14 09:56:00,34.7,16.5,30.30,West,262,4.0,7.0,47,0.00,,,0.00,Wunderground v.1.15,2013-03-14 13:56:00,
2013-03-14 09:57:00,34.8,17.1,30.31,WSW,245,8.0,8.0,48,0.00,,,0.00,Wunderground v.1.15,2013-03-14 13:57:00,
2013-03-14 09:59:00,34.9,17.2,30.31,North,8,2.0,8.0,48,0.00,,,0.00,Wunderground v.1.15,2013-03-14 13:59:00,
2013-03-14 10:00:00,35.0,17.3,30.31,NW,319,3.0,3.0,48,0.00,,,0.00,Wunderground v.1.15,2013-03-14 14:00:00,
2013-03-14 10:01:00,35.0,16.8,30.31,WSW,241,2.0,3.0,47,0.00,,,0.00,Wunderground v.1.15,2013-03-14 14:01:00,
2013-03-14 10:02:00,35.1,17.4,30.31,West,281,3.0,3.0,48,0.00,,,0.00,Wunderground v.1.15,2013-03-14 14:02:00,
2013-03-14 10:04:00,35.3,17.1,30.31,WNW,284,5.0,5.0,47,0.00,,,0.00,Wunderground v.1.15,2013-03-14 14:04:00,
2013-03-14 10:06:00,35.4,17.1,30.31,WNW,290,3.0,5.0,47,0.00,,,0.00,Wunderground v.1.15,2013-03-14 14:06:00,
2013-03-14 10:07:00,35.5,17.7,30.31,North,354,4.0,6.0,48,0.00,,,0.00,Wunderground v.1.15,2013-03-14 14:07:00,
2013-03-14 10:09:00,35.6,16.8,30.31,NNE,26,3.0,9.0,46,0.00,,,0.00,Wunderground v.1.15,2013-03-14 14:09:00,
2013-03-14 10:12:00,35.7,16.9,30.31,NNE,33,6.0,8.0,46,0.00,,,0.00,Wunderground v.1.15,2013-03-14 14:12:00,
2013-03-14 10:13:00,35.8,17.5,30.31,NNE,26,4.0,8.0,47,0.00,,,0.00,Wunderground v.1.15,2013-03-14 14:13:00,
2013-03-14 10:14:00,35.9,18.1,30.31,West,269,2.0,8.0,48,0.00,,,0.00,Wunderground v.1.15,2013-03-14 14:14:00,
2013-03-14 10:17:00,36.1,17.3,30.31,NNE,16,2.0,8.0,46,0.00,,,0.00,Wunderground v.1.15,2013-03-14 14:17:00,
2013-03-14 10:18:00,36.2,16.4,30.31,NNW,333,4.0,8.0,44,0.00,,,0.00,Wunderground v.1.15,2013-03-14 14:18:00,
2013-03-14 10:19:00,36.1,16.3,30.31,ENE,70,3.0,8.0,44,0.00,,,0.00,Wunderground v.1.15,2013-03-14 14:19:00,
2013-03-14 10:22:00,36.1,16.8,30.31,North,6,5.0,9.0,45,0.00,,,0.00,Wunderground v.1.15,2013-03-14 14:22:00,
2013-03-14 10:23:00,36.2,16.9,30.31,ENE,61,3.0,9.0,45,0.00,,,0.00,Wunderground v.1.15,2013-03-14 14:23:00,
2013-03-14 10:25:00,36.4,17.6,30.31,East,88,2.0,9.0,46,0.00,,,0.00,Wunderground v.1.15,2013-03-14 14:25:00,
2013-03-14 10:27:00,36.6,17.2,30.30,NW,305,2.0,9.0,45,0.00,,,0.00,Wunderground v.1.15,2013-03-14 14:27:00,
2013-03-14 10:28:00,36.8,18.4,30.30,WNW,301,4.0,9.0,47,0.00,,,0.00,Wunderground v.1.15,2013-03-14 14:28:00,
2013-03-14 10:30:00,37.1,18.7,30.31,NW,324,3.0,5.0,47,0.00,,,0.00,Wunderground v.1.15,2013-03-14 14:30:00,
2013-03-14 10:32:00,37.3,18.4,30.31,WNW,285,4.0,5.0,46,0.00,,,0.00,Wunderground v.1.15,2013-03-14 14:32:00,
2013-03-14 10:33:00,37.4,18.0,30.30,West,267,1.0,6.0,45,0.00,,,0.00,Wunderground v.1.15,2013-03-14 14:33:00,
2013-03-14 10:35:00,37.6,17.1,30.30,NNW,328,2.0,8.0,43,0.00,,,0.00,Wunderground v.1.15,2013-03-14 14:35:00,
2013-03-14 10:37:00,37.5,17.0,30.31,WNW,290,5.0,8.0,43,0.00,,,0.00,Wunderground v.1.15,2013-03-14 14:37:00,
2013-03-14 10:39:00,37.6,17.1,30.30,West,280,4.0,8.0,43,0.00,,,0.00,Wunderground v.1.15,2013-03-14 14:39:00,
2013-03-14 10:41:00,37.7,18.2,30.30,WSW,248,7.0,7.0,45,0.00,,,0.00,Wunderground v.1.15,2013-03-14 14:41:00,
2013-03-14 10:42:00,37.8,17.3,30.30,WSW,250,2.0,8.0,43,0.00,,,0.00,Wunderground v.1.15,2013-03-14 14:42:00,
2013-03-14 10:44:00,38.1,18.1,30.30,WNW,285,4.0,8.0,44,0.00,,,0.00,Wunderground v.1.15,2013-03-14 14:44:00,
2013-03-14 10:46:00,38.1,17.0,30.30,WSW,240,1.0,8.0,42,0.00,,,0.00,Wunderground v.1.15,2013-03-14 14:46:00,
2013-03-14 10:48:00,38.2,17.6,30.30,WNW,297,2.0,8.0,43,0.00,,,0.00,Wunderground v.1.15,2013-03-14 14:48:00,
2013-03-14 10:49:00,38.3,17.7,30.30,North,6,2.0,8.0,43,0.00,,,0.00,Wunderground v.1.15,2013-03-14 14:49:00,
2013-03-14 10:51:00,38.5,17.9,30.30,WSW,248,4.0,5.0,43,0.00,,,0.00,Wunderground v.1.15,2013-03-14 14:51:00,
2013-03-14 10:54:00,38.6,16.3,30.30,NE,47,1.0,5.0,40,0.00,,,0.00,Wunderground v.1.15,2013-03-14 14:54:00,
2013-03-14 10:56:00,38.7,17.5,30.30,NW,305,3.0,5.0,42,0.00,,,0.00,Wunderground v.1.15,2013-03-14 14:56:00,
2013-03-14 10:59:00,39.0,17.3,30.30,ENE,77,2.0,7.0,41,0.00,,,0.00,Wunderground v.1.15,2013-03-14 14:59:00,
2013-03-14 11:01:00,39.1,17.9,30.30,West,263,4.0,4.0,42,0.00,,,0.00,Wunderground v.1.15,2013-03-14 15:01:00,
2013-03-14 11:04:00,39.1,16.8,30.30,NNW,341,1.0,9.0,40,0.00,,,0.00,Wunderground v.1.15,2013-03-14 15:04:00,
2013-03-14 11:07:00,39.3,17.5,30.30,ENE,77,2.0,9.0,41,0.00,,,0.00,Wunderground v.1.15,2013-03-14 15:07:00,
2013-03-14 11:09:00,39.5,18.3,30.30,NE,44,2.0,9.0,42,0.00,,,0.00,Wunderground v.1.15,2013-03-14 15:09:00,
2013-03-14 11:12:00,39.6,17.2,30.30,NNE,30,6.0,6.0,40,0.00,,,0.00,Wunderground v.1.15,2013-03-14 15:12:00,
2013-03-14 11:14:00,39.6,17.8,30.30,NNW,328,5.0,6.0,41,0.00,,,0.00,Wunderground v.1.15,2013-03-14 15:14:00,
2013-03-14 11:17:00,39.9,17.5,30.30,WNW,290,1.0,6.0,40,0.00,,,0.00,Wunderground v.1.15,2013-03-14 15:17:00,
2013-03-14 11:19:00,40.1,17.1,30.30,NW,308,1.0,6.0,39,0.00,,,0.00,Wunderground v.1.15,2013-03-14 15:19:00,
2013-03-14 11:22:00,40.3,17.3,30.29,West,259,3.0,4.0,39,0.00,,,0.00,Wunderground v.1.15,2013-03-14 15:22:00,
2013-03-14 11:25:00,40.6,18.1,30.30,West,267,3.0,4.0,40,0.00,,,0.00,Wunderground v.1.15,2013-03-14 15:25:00,
2013-03-14 11:27:00,40.6,17.5,30.30,West,280,4.0,7.0,39,0.00,,,0.00,Wunderground v.1.15,2013-03-14 15:27:00,
2013-03-14 11:30:00,40.5,16.9,30.30,WNW,289,5.0,8.0,38,0.00,,,0.00,Wunderground v.1.15,2013-03-14 15:30:00,
2013-03-14 11:33:00,40.3,16.7,30.30,West,270,1.0,8.0,38,0.00,,,0.00,Wunderground v.1.15,2013-03-14 15:33:00,
2013-03-14 11:35:00,40.5,16.9,30.29,NW,315,4.0,8.0,38,0.00,,,0.00,Wunderground v.1.15,2013-03-14 15:35:00,
2013-03-14 11:38:00,40.6,16.9,30.29,WSW,250,3.0,8.0,38,0.00,,,0.00,Wunderground v.1.15,2013-03-14 15:38:00,
2013-03-14 11:40:00,40.8,17.1,30.29,WSW,257,2.0,3.0,38,0.00,,,0.00,Wunderground v.1.15,2013-03-14 15:40:00,
2013-03-14 11:41:00,40.9,17.8,30.29,WNW,296,3.0,3.0,39,0.00,,,0.00,Wunderground v.1.15,2013-03-14 15:41:00,
2013-03-14 11:43:00,41.1,18.0,30.29,WNW,293,3.0,4.0,39,0.00,,,0.00,Wunderground v.1.15,2013-03-14 15:43:00,
2013-03-14 11:45:00,41.3,17.6,30.28,NNE,18,1.0,5.0,38,0.00,,,0.00,Wunderground v.1.15,2013-03-14 15:45:00,
2013-03-14 11:47:00,41.5,17.1,30.29,West,262,2.0,6.0,37,0.00,,,0.00,Wunderground v.1.15,2013-03-14 15:47:00,
2013-03-14 11:48:00,41.6,17.8,30.29,West,259,3.0,6.0,38,0.00,,,0.00,Wunderground v.1.15,2013-03-14 15:48:00,
2013-03-14 11:50:00,41.5,17.7,30.29,NW,309,1.0,3.0,38,0.00,,,0.00,Wunderground v.1.15,2013-03-14 15:50:00,
2013-03-14 11:52:00,41.7,17.9,30.29,WSW,248,2.0,3.0,38,0.00,,,0.00,Wunderground v.1.15,2013-03-14 15:52:00,
2013-03-14 11:54:00,41.9,17.5,30.28,WNW,283,2.0,7.0,37,0.00,,,0.00,Wunderground v.1.15,2013-03-14 15:54:00,
2013-03-14 11:55:00,42.1,19.5,30.28,West,264,2.0,7.0,40,0.00,,,0.00,Wunderground v.1.15,2013-03-14 15:55:00,
2013-03-14 11:56:00,42.2,19.6,30.28,NW,315,1.0,7.0,40,0.00,,,0.00,Wunderground v.1.15,2013-03-14 15:56:00,
2013-03-14 11:57:00,42.3,17.2,30.28,NW,319,3.0,7.0,36,0.00,,,0.00,Wunderground v.1.15,2013-03-14 15:57:00,
2013-03-14 11:59:00,42.3,17.2,30.28,WNW,289,0.0,7.0,36,0.00,,,0.00,Wunderground v.1.15,2013-03-14 15:59:00,
2013-03-14 12:00:00,42.4,17.3,30.27,ENE,68,3.0,5.0,36,0.00,,,0.00,Wunderground v.1.15,2013-03-14 16:00:00,
2013-03-14 12:01:00,42.4,17.3,30.27,East,82,2.0,5.0,36,0.00,,,0.00,Wunderground v.1.15,2013-03-14 16:01:00,
2013-03-14 12:02:00,42.7,17.6,30.27,ENE,64,2.0,5.0,36,0.00,,,0.00,Wunderground v.1.15,2013-03-14 16:02:00,
2013-03-14 12:04:00,42.9,17.7,30.28,NNE,32,3.0,7.0,36,0.00,,,0.00,Wunderground v.1.15,2013-03-14 16:04:00,
2013-03-14 12:05:00,43.0,17.8,30.28,NNE,30,1.0,7.0,36,0.00,,,0.00,Wunderground v.1.15,2013-03-14 16:05:00,
2013-03-14 12:06:00,43.0,17.8,30.28,NNE,28,2.0,7.0,36,0.00,,,0.00,Wunderground v.1.15,2013-03-14 16:06:00,
2013-03-14 12:07:00,43.1,18.6,30.28,ENE,57,4.0,7.0,37,0.00,,,0.00,Wunderground v.1.15,2013-03-14 16:07:00,
2013-03-14 12:09:00,43.3,18.1,30.28,WNW,302,4.0,7.0,36,0.00,,,0.00,Wunderground v.1.15,2013-03-14 16:09:00,
2013-03-14 12:11:00,43.2,16.7,30.27,NW,317,1.0,6.0,34,0.00,,,0.00,Wunderground v.1.15,2013-03-14 16:11:00,
2013-03-14 12:13:00,43.1,17.9,30.27,WNW,290,3.0,6.0,36,0.00,,,0.00,Wunderground v.1.15,2013-03-14 16:13:00,
2013-03-14 12:14:00,43.3,19.4,30.27,NW,316,6.0,6.0,38,0.00,,,0.00,Wunderground v.1.15,2013-03-14 16:14:00,
2013-03-14 12:17:00,43.3,17.4,30.27,WNW,284,1.0,6.0,35,0.00,,,0.00,Wunderground v.1.15,2013-03-14 16:17:00,
2013-03-14 12:18:00,43.4,18.8,30.27,SW,229,3.0,6.0,37,0.00,,,0.00,Wunderground v.1.15,2013-03-14 16:18:00,
2013-03-14 12:19:00,43.7,20.9,30.27,NE,41,2.0,6.0,40,0.00,,,0.00,Wunderground v.1.15,2013-03-14 16:19:00,
2013-03-14 12:22:00,43.9,16.6,30.27,ENE,69,4.0,8.0,33,0.00,,,0.00,Wunderground v.1.15,2013-03-14 16:22:00,
2013-03-14 12:24:00,43.7,17.8,30.27,East,80,1.0,8.0,35,0.00,,,0.00,Wunderground v.1.15,2013-03-14 16:24:00,
2013-03-14 12:25:00,43.7,18.5,30.27,ENE,58,0.0,8.0,36,0.00,,,0.00,Wunderground v.1.15,2013-03-14 16:25:00,
2013-03-14 12:27:00,44.1,17.5,30.27,West,265,1.0,8.0,34,0.00,,,0.00,Wunderground v.1.15,2013-03-14 16:27:00,
2013-03-14 12:29:00,44.2,18.2,30.27,NW,311,2.0,8.0,35,0.00,,,0.00,Wunderground v.1.15,2013-03-14 16:29:00,
2013-03-14 12:30:00,44.3,17.7,30.27,WNW,301,4.0,4.0,34,0.00,,,0.00,Wunderground v.1.15,2013-03-14 16:30:00,
2013-03-14 12:32:00,44.2,17.6,30.27,NW,308,3.0,5.0,34,0.00,,,0.00,Wunderground v.1.15,2013-03-14 16:32:00,
2013-03-14 12:33:00,44.2,16.9,30.27,North,4,2.0,5.0,33,0.00,,,0.00,Wunderground v.1.15,2013-03-14 16:33:00,
2013-03-14 12:34:00,44.3,18.3,30.27,NE,41,5.0,5.0,35,0.00,,,0.00,Wunderground v.1.15,2013-03-14 16:34:00,
2013-03-14 12:35:00,44.2,18.2,30.27,West,279,4.0,6.0,35,0.00,,,0.00,Wunderground v.1.15,2013-03-14 16:35:00,
2013-03-14 12:37:00,44.4,19.1,30.27,West,265,1.0,6.0,36,0.00,,,0.00,Wunderground v.1.15,2013-03-14 16:37:00,
2013-03-14 12:38:00,44.5,19.8,30.27,NW,310,2.0,6.0,37,0.00,,,0.00,Wunderground v.1.15,2013-03-14 16:38:00,
2013-03-14 12:39:00,44.5,18.5,30.27,NW,322,2.0,6.0,35,0.00,,,0.00,Wunderground v.1.15,2013-03-14 16:39:00,
2013-03-14 12:40:00,44.6,17.9,30.27,WSW,250,2.0,5.0,34,0.00,,,0.00,Wunderground v.1.15,2013-03-14 16:40:00,
2013-03-14 12:43:00,44.6,17.9,30.27,NW,314,3.0,8.0,34,0.00,,,0.00,Wunderground v.1.15,2013-03-14 16:43:00,
2013-03-14 12:44:00,44.7,18.0,30.27,SW,225,5.0,8.0,34,0.00,,,0.00,Wunderground v.1.15,2013-03-14 16:44:00,
2013-03-14 12:45:00,44.9,18.2,30.27,North,6,2.0,8.0,34,0.00,,,0.00,Wunderground v.1.15,2013-03-14 16:45:00,
2013-03-14 12:48:00,45.1,19.0,30.27,WNW,290,4.0,8.0,35,0.00,,,0.00,Wunderground v.1.15,2013-03-14 16:48:00,
2013-03-14 12:49:00,45.1,18.4,30.27,WNW,301,4.0,8.0,34,0.00,,,0.00,Wunderground v.1.15,2013-03-14 16:49:00,
2013-03-14 12:50:00,45.2,18.5,30.27,WNW,285,2.0,10.0,34,0.00,,,0.00,Wunderground v.1.15,2013-03-14 16:50:00,
2013-03-14 12:53:00,45.5,18.7,30.27,NNW,347,1.0,10.0,34,0.00,,,0.00,Wunderground v.1.15,2013-03-14 16:53:00,
2013-03-14 12:54:00,45.7,20.9,30.27,NE,36,5.0,10.0,37,0.00,,,0.00,Wunderground v.1.15,2013-03-14 16:54:00,
2013-03-14 12:55:00,45.8,19.7,30.27,East,85,2.0,10.0,35,0.00,,,0.00,Wunderground v.1.15,2013-03-14 16:55:00,
2013-03-14 12:58:00,45.9,18.4,30.27,ENE,60,4.0,10.0,33,0.00,,,0.00,Wunderground v.1.15,2013-03-14 16:58:00,
2013-03-14 12:59:00,45.9,19.1,30.27,West,280,3.0,10.0,34,0.00,,,0.00,Wunderground v.1.15,2013-03-14 16:59:00,
2013-03-14 13:02:00,45.9,18.4,30.27,SW,222,1.0,8.0,33,0.00,,,0.00,Wunderground v.1.15,2013-03-14 17:02:00,
2013-03-14 13:03:00,45.9,19.1,30.27,ENE,77,2.0,8.0,34,0.00,,,0.00,Wunderground v.1.15,2013-03-14 17:03:00,
2013-03-14 13:04:00,45.8,19.0,30.27,NE,42,3.0,8.0,34,0.00,,,0.00,Wunderground v.1.15,2013-03-14 17:04:00,
2013-03-14 13:05:00,45.8,18.3,30.27,NE,50,3.0,8.0,33,0.00,,,0.00,Wunderground v.1.15,2013-03-14 17:05:00,
2013-03-14 13:07:00,45.9,19.8,30.27,NE,39,4.0,8.0,35,0.00,,,0.00,Wunderground v.1.15,2013-03-14 17:07:00,
2013-03-14 13:08:00,46.0,19.2,30.27,WNW,293,4.0,8.0,34,0.00,,,0.00,Wunderground v.1.15,2013-03-14 17:08:00,
2013-03-14 13:09:00,46.1,18.6,30.27,NW,308,3.0,8.0,33,0.00,,,0.00,Wunderground v.1.15,2013-03-14 17:09:00,
2013-03-14 13:10:00,46.1,18.6,30.27,NE,50,3.0,3.0,33,0.00,,,0.00,Wunderground v.1.15,2013-03-14 17:10:00,
2013-03-14 13:12:00,46.3,18.0,30.27,West,278,5.0,8.0,32,0.00,,,0.00,Wunderground v.1.15,2013-03-14 17:12:00,
2013-03-14 13:13:00,46.3,18.0,30.27,WNW,301,5.0,8.0,32,0.00,,,0.00,Wunderground v.1.15,2013-03-14 17:13:00,
2013-03-14 13:15:00,46.3,18.0,30.27,North,354,6.0,8.0,32,0.00,,,0.00,Wunderground v.1.15,2013-03-14 17:15:00,
2013-03-14 13:18:00,46.5,18.2,30.27,NE,53,6.0,8.0,32,0.00,,,0.00,Wunderground v.1.15,2013-03-14 17:18:00,
2013-03-14 13:19:00,46.5,18.2,30.27,NE,36,4.0,8.0,32,0.00,,,0.00,Wunderground v.1.15,2013-03-14 17:19:00,
2013-03-14 13:20:00,46.5,18.9,30.27,NNW,330,4.0,4.0,33,0.00,,,0.00,Wunderground v.1.15,2013-03-14 17:20:00,
2013-03-14 13:24:00,46.6,20.4,30.27,West,277,2.0,7.0,35,0.00,,,0.00,Wunderground v.1.15,2013-03-14 17:24:00,
2013-03-14 13:25:00,46.8,18.5,30.27,WNW,297,6.0,7.0,32,0.00,,,0.00,Wunderground v.1.15,2013-03-14 17:25:00,
2013-03-14 13:29:00,47.0,20.0,30.27,NE,41,2.0,9.0,34,0.00,,,0.00,Wunderground v.1.15,2013-03-14 17:29:00,
2013-03-14 13:30:00,47.0,17.9,30.26,NNE,33,3.0,5.0,31,0.00,,,0.00,Wunderground v.1.15,2013-03-14 17:30:00,
2013-03-14 13:34:00,47.1,19.4,30.26,SW,218,5.0,8.0,33,0.00,,,0.00,Wunderground v.1.15,2013-03-14 17:34:00,
2013-03-14 13:35:00,47.2,18.1,30.26,West,263,3.0,8.0,31,0.00,,,0.00,Wunderground v.1.15,2013-03-14 17:35:00,
2013-03-14 13:39:00,47.9,20.1,30.26,East,80,4.0,8.0,33,0.00,,,0.00,Wunderground v.1.15,2013-03-14 17:39:00,
2013-03-14 13:40:00,48.1,18.8,30.26,East,101,1.0,3.0,31,0.00,,,0.00,Wunderground v.1.15,2013-03-14 17:40:00,
2013-03-14 13:41:00,48.1,18.8,30.26,NE,50,3.0,3.0,31,0.00,,,0.00,Wunderground v.1.15,2013-03-14 17:41:00,
2013-03-14 13:44:00,48.3,21.9,30.26,WNW,290,3.0,6.0,35,0.00,,,0.00,Wunderground v.1.15,2013-03-14 17:44:00,
2013-03-14 13:45:00,48.3,18.3,30.26,WSW,240,3.0,6.0,30,0.00,,,0.00,Wunderground v.1.15,2013-03-14 17:45:00,
2013-03-14 13:46:00,48.3,18.3,30.26,WNW,293,2.0,6.0,30,0.00,,,0.00,Wunderground v.1.15,2013-03-14 17:46:00,
2013-03-14 13:49:00,48.4,19.9,30.25,WSW,255,3.0,6.0,32,0.00,,,0.00,Wunderground v.1.15,2013-03-14 17:49:00,
2013-03-14 13:50:00,48.4,19.1,30.25,SW,232,3.0,4.0,31,0.00,,,0.00,Wunderground v.1.15,2013-03-14 17:50:00,
2013-03-14 13:51:00,48.4,19.1,30.25,SSW,212,1.0,4.0,31,0.00,,,0.00,Wunderground v.1.15,2013-03-14 17:51:00,
2013-03-14 13:54:00,48.2,18.2,30.25,WSW,252,3.0,6.0,30,0.00,,,0.00,Wunderground v.1.15,2013-03-14 17:54:00,
2013-03-14 13:55:00,48.2,19.7,30.25,East,91,1.0,6.0,32,0.00,,,0.00,Wunderground v.1.15,2013-03-14 17:55:00,
2013-03-14 13:56:00,48.2,19.7,30.25,SSW,211,1.0,6.0,32,0.00,,,0.00,Wunderground v.1.15,2013-03-14 17:56:00,
2013-03-14 13:59:00,48.5,17.6,30.25,SSW,204,4.0,7.0,29,0.00,,,0.00,Wunderground v.1.15,2013-03-14 17:59:00,
2013-03-14 14:01:00,48.4,17.6,30.25,West,278,2.0,5.0,29,0.00,,,0.00,Wunderground v.1.15,2013-03-14 18:01:00,
2013-03-14 14:02:00,48.3,17.5,30.25,West,272,3.0,5.0,29,0.00,,,0.00,Wunderground v.1.15,2013-03-14 18:02:00,
2013-03-14 14:04:00,48.3,18.3,30.25,WNW,297,0.0,5.0,30,0.00,,,0.00,Wunderground v.1.15,2013-03-14 18:04:00,
2013-03-14 14:05:00,48.3,18.3,30.25,NNE,32,2.0,5.0,30,0.00,,,0.00,Wunderground v.1.15,2013-03-14 18:05:00,
2013-03-14 14:06:00,48.4,20.6,30.25,WSW,255,2.0,5.0,33,0.00,,,0.00,Wunderground v.1.15,2013-03-14 18:06:00,
2013-03-14 14:07:00,48.6,18.5,30.25,West,263,0.0,5.0,30,0.00,,,0.00,Wunderground v.1.15,2013-03-14 18:07:00,
2013-03-14 14:10:00,49.0,19.6,30.25,West,281,1.0,6.0,31,0.00,,,0.00,Wunderground v.1.15,2013-03-14 18:10:00,
2013-03-14 14:11:00,49.1,19.7,30.25,NW,324,1.0,3.0,31,0.00,,,0.00,Wunderground v.1.15,2013-03-14 18:11:00,
2013-03-14 14:12:00,49.2,18.3,30.24,WNW,301,7.0,7.0,29,0.00,,,0.00,Wunderground v.1.15,2013-03-14 18:12:00,
2013-03-14 14:15:00,49.2,19.8,30.24,ENE,60,4.0,7.0,31,0.00,,,0.00,Wunderground v.1.15,2013-03-14 18:15:00,
2013-03-14 14:16:00,49.1,18.2,30.24,East,91,2.0,7.0,29,0.00,,,0.00,Wunderground v.1.15,2013-03-14 18:16:00,
2013-03-14 14:17:00,49.1,18.2,30.24,SW,222,2.0,7.0,29,0.00,,,0.00,Wunderground v.1.15,2013-03-14 18:17:00,
2013-03-14 14:20:00,49.5,20.8,30.24,SW,218,2.0,2.0,32,0.00,,,0.00,Wunderground v.1.15,2013-03-14 18:20:00,
2013-03-14 14:22:00,49.8,18.8,30.24,SW,218,1.0,9.0,29,0.00,,,0.00,Wunderground v.1.15,2013-03-14 18:22:00,
2013-03-14 14:23:00,49.9,18.9,30.24,WSW,258,3.0,9.0,29,0.00,,,0.00,Wunderground v.1.15,2013-03-14 18:23:00,
2013-03-14 14:25:00,50.0,18.9,30.24,SW,217,3.0,9.0,29,0.00,,,0.00,Wunderground v.1.15,2013-03-14 18:25:00,
2013-03-14 14:27:00,50.2,18.3,30.24,ENE,61,3.0,9.0,28,0.00,,,0.00,Wunderground v.1.15,2013-03-14 18:27:00,
2013-03-14 14:29:00,50.5,18.6,30.24,NNW,330,3.0,9.0,28,0.00,,,0.00,Wunderground v.1.15,2013-03-14 18:29:00,
2013-03-14 14:30:00,50.5,19.4,30.24,East,100,2.0,5.0,29,0.00,,,0.00,Wunderground v.1.15,2013-03-14 18:30:00,
2013-03-14 14:32:00,50.1,16.5,30.24,West,278,3.0,8.0,26,0.00,,,0.00,Wunderground v.1.15,2013-03-14 18:32:00,
2013-03-14 14:34:00,49.8,18.0,30.24,SSW,207,1.0,8.0,28,0.00,,,0.00,Wunderground v.1.15,2013-03-14 18:34:00,
2013-03-14 14:35:00,49.8,18.0,30.23,SW,229,5.0,8.0,28,0.00,,,0.00,Wunderground v.1.15,2013-03-14 18:35:00,
2013-03-14 14:37:00,50.0,17.3,30.23,WSW,250,4.0,8.0,27,0.00,,,0.00,Wunderground v.1.15,2013-03-14 18:37:00,
2013-03-14 14:40:00,50.3,18.4,30.23,West,273,3.0,3.0,28,0.00,,,0.00,Wunderground v.1.15,2013-03-14 18:40:00,
2013-03-14 14:43:00,50.6,18.6,30.23,WSW,255,2.0,4.0,28,0.00,,,0.00,Wunderground v.1.15,2013-03-14 18:43:00,
2013-03-14 14:45:00,50.8,17.1,30.23,NW,315,5.0,9.0,26,0.00,,,0.00,Wunderground v.1.15,2013-03-14 18:45:00,
2013-03-14 14:48:00,50.7,17.0,30.23,West,274,1.0,9.0,26,0.00,,,0.00,Wunderground v.1.15,2013-03-14 18:48:00,
2013-03-14 14:50:00,50.6,17.8,30.23,SW,229,5.0,5.0,27,0.00,,,0.00,Wunderground v.1.15,2013-03-14 18:50:00,
2013-03-14 14:51:00,50.6,17.8,30.23,SW,232,4.0,5.0,27,0.00,,,0.00,Wunderground v.1.15,2013-03-14 18:51:00,
2013-03-14 14:53:00,50.5,15.9,30.23,West,263,6.0,11.0,25,0.00,,,0.00,Wunderground v.1.15,2013-03-14 18:53:00,
2013-03-14 14:55:00,50.2,16.6,30.23,SW,232,9.0,11.0,26,0.00,,,0.00,Wunderground v.1.15,2013-03-14 18:55:00,
2013-03-14 14:56:00,50.2,16.6,30.23,SSW,207,7.0,11.0,26,0.00,,,0.00,Wunderground v.1.15,2013-03-14 18:56:00,
2013-03-14 14:58:00,50.3,17.5,30.22,SW,233,6.0,11.0,27,0.00,,,0.00,Wunderground v.1.15,2013-03-14 18:58:00,
2013-03-14 15:01:00,50.6,16.9,30.22,WSW,248,2.0,5.0,26,0.00,,,0.00,Wunderground v.1.15,2013-03-14 19:01:00,
2013-03-14 15:02:00,50.6,17.8,30.22,SW,235,5.0,5.0,27,0.00,,,0.00,Wunderground v.1.15,2013-03-14 19:02:00,
2013-03-14 15:03:00,50.8,17.1,30.22,WSW,245,5.0,6.0,26,0.00,,,0.00,Wunderground v.1.15,2013-03-14 19:03:00,
2013-03-14 15:06:00,50.7,17.9,30.22,WSW,239,4.0,6.0,27,0.00,,,0.00,Wunderground v.1.15,2013-03-14 19:06:00,
2013-03-14 15:07:00,50.7,17.0,30.21,West,260,3.0,6.0,26,0.00,,,0.00,Wunderground v.1.15,2013-03-14 19:07:00,
2013-03-14 15:08:00,50.6,16.9,30.21,WSW,253,4.0,6.0,26,0.00,,,0.00,Wunderground v.1.15,2013-03-14 19:08:00,
2013-03-14 15:11:00,50.7,17.0,30.21,SW,229,4.0,7.0,26,0.00,,,0.00,Wunderground v.1.15,2013-03-14 19:11:00,
2013-03-14 15:12:00,50.7,17.0,30.21,West,281,1.0,7.0,26,0.00,,,0.00,Wunderground v.1.15,2013-03-14 19:12:00,
2013-03-14 15:14:00,50.8,17.1,30.21,West,266,2.0,7.0,26,0.00,,,0.00,Wunderground v.1.15,2013-03-14 19:14:00,
2013-03-14 15:16:00,50.7,17.0,30.21,WNW,297,4.0,7.0,26,0.00,,,0.00,Wunderground v.1.15,2013-03-14 19:16:00,
2013-03-14 15:17:00,50.7,17.0,30.21,North,1,7.0,7.0,26,0.00,,,0.00,Wunderground v.1.15,2013-03-14 19:17:00,
2013-03-14 15:18:00,50.6,17.8,30.21,NNW,335,0.0,7.0,27,0.00,,,0.00,Wunderground v.1.15,2013-03-14 19:18:00,
2013-03-14 15:19:00,50.6,17.8,30.21,NNW,335,1.0,7.0,27,0.00,,,0.00,Wunderground v.1.15,2013-03-14 19:19:00,
2013-03-14 15:22:00,50.6,16.9,30.21,SSE,158,2.0,6.0,26,0.00,,,0.00,Wunderground v.1.15,2013-03-14 19:22:00,
2013-03-14 15:23:00,50.6,16.9,30.21,SW,217,3.0,6.0,26,0.00,,,0.00,Wunderground v.1.15,2013-03-14 19:23:00,
2013-03-14 15:24:00,50.6,16.9,30.21,SW,225,4.0,6.0,26,0.00,,,0.00,Wunderground v.1.15,2013-03-14 19:24:00,
2013-03-14 15:27:00,50.6,18.6,30.21,West,262,3.0,9.0,28,0.00,,,0.00,Wunderground v.1.15,2013-03-14 19:27:00,
2013-03-14 15:28:00,50.4,18.5,30.21,WSW,248,7.0,9.0,28,0.00,,,0.00,Wunderground v.1.15,2013-03-14 19:28:00,
2013-03-14 15:29:00,50.4,18.5,30.20,West,263,7.0,9.0,28,0.00,,,0.00,Wunderground v.1.15,2013-03-14 19:29:00,
2013-03-14 15:33:00,50.0,18.1,30.20,SSW,203,5.0,9.0,28,0.00,,,0.00,Wunderground v.1.15,2013-03-14 19:33:00,
2013-03-14 15:34:00,49.9,18.0,30.20,West,281,5.0,9.0,28,0.00,,,0.00,Wunderground v.1.15,2013-03-14 19:34:00,
2013-03-14 15:38:00,49.6,16.9,30.21,WSW,245,6.0,9.0,27,0.00,,,0.00,Wunderground v.1.15,2013-03-14 19:38:00,
2013-03-14 15:39:00,49.5,17.7,30.20,WNW,300,6.0,9.0,28,0.00,,,0.00,Wunderground v.1.15,2013-03-14 19:39:00,
2013-03-14 15:43:00,49.3,17.5,30.20,SW,235,4.0,6.0,28,0.00,,,0.00,Wunderground v.1.15,2013-03-14 19:43:00,
2013-03-14 15:44:00,49.2,17.4,30.20,NW,308,4.0,6.0,28,0.00,,,0.00,Wunderground v.1.15,2013-03-14 19:44:00,
2013-03-14 15:48:00,48.9,18.0,30.20,WSW,253,3.0,8.0,29,0.00,,,0.00,Wunderground v.1.15,2013-03-14 19:48:00,
2013-03-14 15:49:00,49.0,18.1,30.20,West,265,2.0,8.0,29,0.00,,,0.00,Wunderground v.1.15,2013-03-14 19:49:00,
2013-03-14 15:50:00,49.1,18.2,30.20,West,260,3.0,4.0,29,0.00,,,0.00,Wunderground v.1.15,2013-03-14 19:50:00,
2013-03-14 15:53:00,49.3,18.3,30.20,WSW,238,1.0,7.0,29,0.00,,,0.00,Wunderground v.1.15,2013-03-14 19:53:00,
2013-03-14 15:54:00,49.5,19.3,30.20,WSW,240,4.0,7.0,30,0.00,,,0.00,Wunderground v.1.15,2013-03-14 19:54:00,
2013-03-14 15:55:00,49.6,16.9,30.20,WSW,257,2.0,7.0,27,0.00,,,0.00,Wunderground v.1.15,2013-03-14 19:55:00,
2013-03-14 15:59:00,49.8,18.0,30.20,WNW,290,3.0,7.0,28,0.00,,,0.00,Wunderground v.1.15,2013-03-14 19:59:00,
2013-03-14 16:00:00,49.9,17.2,30.20,West,273,1.0,3.0,27,0.00,,,0.00,Wunderground v.1.15,2013-03-14 20:00:00,
2013-03-14 16:04:00,49.9,17.2,30.20,SSW,211,6.0,6.0,27,0.00,,,0.00,Wunderground v.1.15,2013-03-14 20:04:00,
2013-03-14 16:05:00,50.0,18.1,30.19,WSW,240,5.0,6.0,28,0.00,,,0.00,Wunderground v.1.15,2013-03-14 20:05:00,
2013-03-14 16:06:00,50.0,18.1,30.19,WSW,248,2.0,6.0,28,0.00,,,0.00,Wunderground v.1.15,2013-03-14 20:06:00,
2013-03-14 16:09:00,50.0,17.3,30.19,WNW,284,3.0,6.0,27,0.00,,,0.00,Wunderground v.1.15,2013-03-14 20:09:00,
2013-03-14 16:10:00,50.1,17.4,30.19,NW,308,2.0,4.0,27,0.00,,,0.00,Wunderground v.1.15,2013-03-14 20:10:00,
2013-03-14 16:11:00,50.1,17.4,30.19,NNE,20,7.0,7.0,27,0.00,,,0.00,Wunderground v.1.15,2013-03-14 20:11:00,
2013-03-14 16:14:00,50.1,18.2,30.19,NNW,344,1.0,9.0,28,0.00,,,0.00,Wunderground v.1.15,2013-03-14 20:14:00,
2013-03-14 16:15:00,50.2,18.3,30.19,NNW,330,1.0,9.0,28,0.00,,,0.00,Wunderground v.1.15,2013-03-14 20:15:00,
2013-03-14 16:17:00,50.2,17.5,30.19,SW,233,2.0,9.0,27,0.00,,,0.00,Wunderground v.1.15,2013-03-14 20:17:00,
2013-03-14 16:19:00,50.4,18.5,30.19,NW,310,7.0,9.0,28,0.00,,,0.00,Wunderground v.1.15,2013-03-14 20:19:00,
2013-03-14 16:20:00,50.5,16.8,30.19,SW,225,8.0,9.0,26,0.00,,,0.00,Wunderground v.1.15,2013-03-14 20:20:00,
2013-03-14 16:21:00,50.5,15.9,30.19,SW,222,5.0,9.0,25,0.00,,,0.00,Wunderground v.1.15,2013-03-14 20:21:00,
2013-03-14 16:22:00,50.4,15.8,30.19,SSW,207,2.0,9.0,25,0.00,,,0.00,Wunderground v.1.15,2013-03-14 20:22:00,
2013-03-14 16:24:00,50.4,15.8,30.19,WNW,300,3.0,9.0,25,0.00,,,0.00,Wunderground v.1.15,2013-03-14 20:24:00,
2013-03-14 16:25:00,50.4,14.9,30.19,WNW,288,3.0,9.0,24,0.00,,,0.00,Wunderground v.1.15,2013-03-14 20:25:00,
2013-03-14 16:26:00,50.4,15.8,30.19,NNW,345,3.0,9.0,25,0.00,,,0.00,Wunderground v.1.15,2013-03-14 20:26:00,
2013-03-14 16:27:00,50.4,16.8,30.19,NNW,340,1.0,9.0,26,0.00,,,0.00,Wunderground v.1.15,2013-03-14 20:27:00,
2013-03-14 16:29:00,50.5,15.9,30.18,NW,322,2.0,9.0,25,0.00,,,0.00,Wunderground v.1.15,2013-03-14 20:29:00,
2013-03-14 16:31:00,50.6,17.8,30.18,WNW,302,3.0,4.0,27,0.00,,,0.00,Wunderground v.1.15,2013-03-14 20:31:00,
2013-03-14 16:32:00,50.6,16.0,30.18,West,263,3.0,4.0,25,0.00,,,0.00,Wunderground v.1.15,2013-03-14 20:32:00,
2013-03-14 16:34:00,50.6,16.0,30.18,West,273,5.0,6.0,25,0.00,,,0.00,Wunderground v.1.15,2013-03-14 20:34:00,
2013-03-14 16:36:00,50.7,17.0,30.18,West,271,1.0,6.0,26,0.00,,,0.00,Wunderground v.1.15,2013-03-14 20:36:00,
2013-03-14 16:37:00,50.7,17.0,30.18,West,278,2.0,6.0,26,0.00,,,0.00,Wunderground v.1.15,2013-03-14 20:37:00,
2013-03-14 16:39:00,50.8,16.2,30.18,WNW,289,2.0,6.0,25,0.00,,,0.00,Wunderground v.1.15,2013-03-14 20:39:00,
2013-03-14 16:41:00,50.8,16.2,30.18,SW,229,2.0,4.0,25,0.00,,,0.00,Wunderground v.1.15,2013-03-14 20:41:00,
2013-03-14 16:42:00,50.9,17.2,30.18,West,281,3.0,4.0,26,0.00,,,0.00,Wunderground v.1.15,2013-03-14 20:42:00,
2013-03-14 16:43:00,50.8,17.1,30.18,West,269,2.0,4.0,26,0.00,,,0.00,Wunderground v.1.15,2013-03-14 20:43:00,
2013-03-14 16:44:00,50.9,16.3,30.18,West,276,2.0,8.0,25,0.00,,,0.00,Wunderground v.1.15,2013-03-14 20:44:00,
2013-03-14 16:47:00,50.8,15.2,30.18,West,273,2.0,8.0,24,0.00,,,0.00,Wunderground v.1.15,2013-03-14 20:47:00,
2013-03-14 16:48:00,50.8,15.2,30.18,WNW,290,2.0,8.0,24,0.00,,,0.00,Wunderground v.1.15,2013-03-14 20:48:00,
2013-03-14 16:49:00,50.7,15.2,30.18,SE,143,0.0,8.0,24,0.00,,,0.00,Wunderground v.1.15,2013-03-14 20:49:00,
2013-03-14 16:52:00,50.8,16.2,30.18,North,356,5.0,6.0,25,0.00,,,0.00,Wunderground v.1.15,2013-03-14 20:52:00,
2013-03-14 16:53:00,50.8,15.2,30.18,WSW,257,3.0,6.0,24,0.00,,,0.00,Wunderground v.1.15,2013-03-14 20:53:00,
2013-03-14 16:54:00,50.9,16.3,30.18,West,276,3.0,6.0,25,0.00,,,0.00,Wunderground v.1.15,2013-03-14 20:54:00,
2013-03-14 16:58:00,51.1,15.5,30.18,WNW,297,4.0,6.0,24,0.00,,,0.00,Wunderground v.1.15,2013-03-14 20:58:00,
2013-03-14 16:59:00,51.2,17.4,30.18,WSW,238,5.0,6.0,26,0.00,,,0.00,Wunderground v.1.15,2013-03-14 20:59:00,
2013-03-14 17:03:00,51.4,16.7,30.18,West,263,3.0,4.0,25,0.00,,,0.00,Wunderground v.1.15,2013-03-14 21:03:00,
2013-03-14 17:04:00,51.4,14.8,30.18,WSW,255,1.0,4.0,23,0.00,,,0.00,Wunderground v.1.15,2013-03-14 21:04:00,
2013-03-14 17:08:00,51.4,16.7,30.18,WNW,287,1.0,5.0,25,0.00,,,0.00,Wunderground v.1.15,2013-03-14 21:08:00,
2013-03-14 17:09:00,51.4,16.7,30.18,WNW,286,1.0,5.0,25,0.00,,,0.00,Wunderground v.1.15,2013-03-14 21:09:00,
2013-03-14 17:10:00,51.4,16.7,30.18,WNW,289,2.0,2.0,25,0.00,,,0.00,Wunderground v.1.15,2013-03-14 21:10:00,
2013-03-14 17:14:00,51.5,14.9,30.18,WNW,292,3.0,5.0,23,0.00,,,0.00,Wunderground v.1.15,2013-03-14 21:14:00,
2013-03-14 17:15:00,51.5,14.9,30.18,SW,226,1.0,5.0,23,0.00,,,0.00,Wunderground v.1.15,2013-03-14 21:15:00,
2013-03-14 17:19:00,51.7,16.0,30.17,WSW,257,1.0,6.0,24,0.00,,,0.00,Wunderground v.1.15,2013-03-14 21:19:00,
2013-03-14 17:20:00,51.8,16.1,30.17,WSW,257,1.0,6.0,24,0.00,,,0.00,Wunderground v.1.15,2013-03-14 21:20:00,
2013-03-14 17:25:00,51.9,15.2,30.17,SE,132,1.0,5.0,23,0.00,,,0.00,Wunderground v.1.15,2013-03-14 21:25:00,
2013-03-14 17:30:00,52.0,14.3,30.18,WSW,237,5.0,5.0,22,0.00,,,0.00,Wunderground v.1.15,2013-03-14 21:30:00,
2013-03-14 17:31:00,52.0,14.3,30.17,WSW,247,2.0,5.0,22,0.00,,,0.00,Wunderground v.1.15,2013-03-14 21:31:00,
2013-03-14 17:35:00,51.8,15.1,30.17,WNW,283,3.0,7.0,23,0.00,,,0.00,Wunderground v.1.15,2013-03-14 21:35:00,
2013-03-14 17:36:00,51.8,15.1,30.17,WSW,253,3.0,7.0,23,0.00,,,0.00,Wunderground v.1.15,2013-03-14 21:36:00,
2013-03-14 17:40:00,51.7,15.0,30.17,WSW,250,4.0,6.0,23,0.00,,,0.00,Wunderground v.1.15,2013-03-14 21:40:00,
2013-03-14 17:41:00,51.6,15.0,30.17,SW,232,3.0,6.0,23,0.00,,,0.00,Wunderground v.1.15,2013-03-14 21:41:00,
2013-03-14 17:45:00,51.5,14.9,30.17,West,263,3.0,8.0,23,0.00,,,0.00,Wunderground v.1.15,2013-03-14 21:45:00,
2013-03-14 17:46:00,51.5,14.9,30.17,SW,236,6.0,8.0,23,0.00,,,0.00,Wunderground v.1.15,2013-03-14 21:46:00,
2013-03-14 17:47:00,51.5,14.9,30.17,WSW,240,7.0,8.0,23,0.00,,,0.00,Wunderground v.1.15,2013-03-14 21:47:00,
2013-03-14 17:50:00,51.4,15.8,30.17,WNW,296,3.0,5.0,24,0.00,,,0.00,Wunderground v.1.15,2013-03-14 21:50:00,
2013-03-14 17:52:00,51.4,15.8,30.17,WSW,250,2.0,5.0,24,0.00,,,0.00,Wunderground v.1.15,2013-03-14 21:52:00,
2013-03-14 17:53:00,51.4,15.8,30.17,WNW,295,3.0,5.0,24,0.00,,,0.00,Wunderground v.1.15,2013-03-14 21:53:00,
2013-03-14 17:55:00,51.5,16.8,30.17,WSW,248,1.0,5.0,25,0.00,,,0.00,Wunderground v.1.15,2013-03-14 21:55:00,
2013-03-14 17:57:00,51.5,17.7,30.17,West,267,2.0,5.0,26,0.00,,,0.00,Wunderground v.1.15,2013-03-14 21:57:00,
2013-03-14 17:58:00,51.5,17.7,30.17,NW,304,3.0,5.0,26,0.00,,,0.00,Wunderground v.1.15,2013-03-14 21:58:00,
2013-03-14 18:01:00,51.6,15.9,30.17,WSW,238,2.0,4.0,24,0.00,,,0.00,Wunderground v.1.15,2013-03-14 22:01:00,
2013-03-14 18:02:00,51.6,16.9,30.17,SW,229,7.0,8.0,25,0.00,,,0.00,Wunderground v.1.15,2013-03-14 22:02:00,
2013-03-14 18:03:00,51.6,16.9,30.17,WSW,245,3.0,8.0,25,0.00,,,0.00,Wunderground v.1.15,2013-03-14 22:03:00,
2013-03-14 18:06:00,51.6,15.9,30.17,WSW,248,6.0,9.0,24,0.00,,,0.00,Wunderground v.1.15,2013-03-14 22:06:00,
2013-03-14 18:08:00,51.5,15.8,30.17,SW,222,5.0,9.0,24,0.00,,,0.00,Wunderground v.1.15,2013-03-14 22:08:00,
2013-03-14 18:12:00,51.3,15.7,30.17,WSW,252,3.0,7.0,24,0.00,,,0.00,Wunderground v.1.15,2013-03-14 22:12:00,
2013-03-14 18:13:00,51.2,15.6,30.17,SW,226,1.0,7.0,24,0.00,,,0.00,Wunderground v.1.15,2013-03-14 22:13:00,
2013-03-14 18:17:00,50.9,15.3,30.17,WSW,237,4.0,7.0,24,0.00,,,0.00,Wunderground v.1.15,2013-03-14 22:17:00,
2013-03-14 18:18:00,50.8,15.2,30.17,SW,235,2.0,7.0,24,0.00,,,0.00,Wunderground v.1.15,2013-03-14 22:18:00,
2013-03-14 18:19:00,50.8,15.2,30.17,WSW,239,2.0,7.0,24,0.00,,,0.00,Wunderground v.1.15,2013-03-14 22:19:00,
2013-03-14 18:22:00,50.7,16.1,30.17,West,281,2.0,7.0,25,0.00,,,0.00,Wunderground v.1.15,2013-03-14 22:22:00,
2013-03-14 18:23:00,50.7,16.1,30.17,WSW,238,1.0,7.0,25,0.00,,,0.00,Wunderground v.1.15,2013-03-14 22:23:00,
2013-03-14 18:24:00,50.7,17.0,30.17,SW,230,2.0,7.0,26,0.00,,,0.00,Wunderground v.1.15,2013-03-14 22:24:00,
2013-03-14 18:28:00,50.7,16.1,30.17,West,263,2.0,7.0,25,0.00,,,0.00,Wunderground v.1.15,2013-03-14 22:28:00,
2013-03-14 18:29:00,50.6,16.0,30.17,WSW,250,1.0,7.0,25,0.00,,,0.00,Wunderground v.1.15,2013-03-14 22:29:00,
2013-03-14 18:33:00,50.6,16.9,30.17,SW,236,3.0,3.0,26,0.00,,,0.00,Wunderground v.1.15,2013-03-14 22:33:00,
2013-03-14 18:34:00,50.6,16.9,30.17,WSW,243,2.0,3.0,26,0.00,,,0.00,Wunderground v.1.15,2013-03-14 22:34:00,
2013-03-14 18:35:00,50.6,16.9,30.17,West,274,2.0,3.0,26,0.00,,,0.00,Wunderground v.1.15,2013-03-14 22:35:00,
2013-03-14 18:38:00,50.5,16.8,30.17,WSW,245,2.0,3.0,26,0.00,,,0.00,Wunderground v.1.15,2013-03-14 22:38:00,
2013-03-14 18:39:00,50.5,16.8,30.17,West,276,3.0,5.0,26,0.00,,,0.00,Wunderground v.1.15,2013-03-14 22:39:00,
2013-03-14 18:40:00,50.4,16.8,30.17,West,267,2.0,2.0,26,0.00,,,0.00,Wunderground v.1.15,2013-03-14 22:40:00,
2013-03-14 18:44:00,50.2,16.6,30.17,SW,236,5.0,5.0,26,0.00,,,0.00,Wunderground v.1.15,2013-03-14 22:44:00,
2013-03-14 18:45:00,50.1,16.5,30.17,SW,224,3.0,5.0,26,0.00,,,0.00,Wunderground v.1.15,2013-03-14 22:45:00,
2013-03-14 18:49:00,49.8,17.1,30.17,SW,226,1.0,5.0,27,0.00,,,0.00,Wunderground v.1.15,2013-03-14 22:49:00,
2013-03-14 18:50:00,49.8,17.1,30.17,SW,221,2.0,3.0,27,0.00,,,0.00,Wunderground v.1.15,2013-03-14 22:50:00,
2013-03-14 18:51:00,49.7,17.0,30.17,WSW,240,2.0,3.0,27,0.00,,,0.00,Wunderground v.1.15,2013-03-14 22:51:00,
2013-03-14 18:54:00,49.6,16.9,30.17,West,267,2.0,3.0,27,0.00,,,0.00,Wunderground v.1.15,2013-03-14 22:54:00,
2013-03-14 18:55:00,49.6,16.9,30.17,West,270,0.0,3.0,27,0.00,,,0.00,Wunderground v.1.15,2013-03-14 22:55:00,
2013-03-14 18:57:00,49.5,16.9,30.17,SW,221,2.0,3.0,27,0.00,,,0.00,Wunderground v.1.15,2013-03-14 22:57:00,
2013-03-14 18:59:00,49.4,15.9,30.17,SW,224,2.0,3.0,26,0.00,,,0.00,Wunderground v.1.15,2013-03-14 22:59:00,
2013-03-14 19:00:00,49.4,15.9,30.17,SW,235,0.0,1.0,26,0.00,,,0.00,Wunderground v.1.15,2013-03-14 23:00:00,
2013-03-14 19:02:00,49.4,16.8,30.17,West,277,1.0,1.0,27,0.00,,,0.00,Wunderground v.1.15,2013-03-14 23:02:00,
2013-03-14 19:04:00,49.3,15.8,30.17,ENE,73,1.0,5.0,26,0.00,,,0.00,Wunderground v.1.15,2013-03-14 23:04:00,
2013-03-14 19:05:00,49.2,15.7,30.17,West,264,1.0,5.0,26,0.00,,,0.00,Wunderground v.1.15,2013-03-14 23:05:00,
2013-03-14 19:06:00,49.1,16.5,30.17,West,264,1.0,5.0,27,0.00,,,0.00,Wunderground v.1.15,2013-03-14 23:06:00,
2013-03-14 19:07:00,49.1,14.7,30.17,West,271,1.0,5.0,25,0.00,,,0.00,Wunderground v.1.15,2013-03-14 23:07:00,
2013-03-14 19:09:00,49.0,14.7,30.17,West,281,0.0,5.0,25,0.00,,,0.00,Wunderground v.1.15,2013-03-14 23:09:00,
2013-03-14 19:10:00,48.9,16.3,30.17,West,264,0.0,1.0,27,0.00,,,0.00,Wunderground v.1.15,2013-03-14 23:10:00,
2013-03-14 19:11:00,48.8,15.4,30.17,West,264,0.0,1.0,26,0.00,,,0.00,Wunderground v.1.15,2013-03-14 23:11:00,
2013-03-14 19:12:00,48.7,15.3,30.17,WSW,256,1.0,3.0,26,0.00,,,0.00,Wunderground v.1.15,2013-03-14 23:12:00,
2013-03-14 19:14:00,48.6,15.2,30.17,WNW,294,1.0,3.0,26,0.00,,,0.00,Wunderground v.1.15,2013-03-14 23:14:00,
2013-03-14 19:16:00,48.5,14.2,30.17,West,263,1.0,4.0,25,0.00,,,0.00,Wunderground v.1.15,2013-03-14 23:16:00,
2013-03-14 19:18:00,48.3,15.0,30.17,West,281,1.0,4.0,26,0.00,,,0.00,Wunderground v.1.15,2013-03-14 23:18:00,
2013-03-14 19:19:00,48.2,15.7,30.17,SE,125,1.0,4.0,27,0.00,,,0.00,Wunderground v.1.15,2013-03-14 23:19:00,
2013-03-14 19:21:00,48.1,14.8,30.17,WNW,297,0.0,4.0,26,0.00,,,0.00,Wunderground v.1.15,2013-03-14 23:21:00,
2013-03-14 19:22:00,48.1,15.6,30.17,WSW,248,1.0,4.0,27,0.00,,,0.00,Wunderground v.1.15,2013-03-14 23:22:00,
2013-03-14 19:23:00,48.0,14.7,30.17,WSW,245,0.0,4.0,26,0.00,,,0.00,Wunderground v.1.15,2013-03-14 23:23:00,
2013-03-14 19:24:00,47.9,14.6,30.17,SW,215,1.0,4.0,26,0.00,,,0.00,Wunderground v.1.15,2013-03-14 23:24:00,
2013-03-14 19:26:00,47.8,15.4,30.17,WNW,284,2.0,4.0,27,0.00,,,0.00,Wunderground v.1.15,2013-03-14 23:26:00,
2013-03-14 19:28:00,47.7,15.3,30.17,WSW,245,4.0,4.0,27,0.00,,,0.00,Wunderground v.1.15,2013-03-14 23:28:00,
2013-03-14 19:30:00,47.7,15.3,30.17,WSW,250,2.0,4.0,27,0.00,,,0.00,Wunderground v.1.15,2013-03-14 23:30:00,
2013-03-14 19:31:00,47.6,14.3,30.17,WSW,257,1.0,3.0,26,0.00,,,0.00,Wunderground v.1.15,2013-03-14 23:31:00,
2013-03-14 19:33:00,47.5,15.1,30.17,West,278,2.0,3.0,27,0.00,,,0.00,Wunderground v.1.15,2013-03-14 23:33:00,
2013-03-14 19:35:00,47.5,15.1,30.17,West,269,1.0,3.0,27,0.00,,,0.00,Wunderground v.1.15,2013-03-14 23:35:00,
2013-03-14 19:36:00,47.3,15.0,30.17,West,262,1.0,3.0,27,0.00,,,0.00,Wunderground v.1.15,2013-03-14 23:36:00,
2013-03-14 19:38:00,47.2,15.7,30.17,West,260,1.0,3.0,28,0.00,,,0.00,Wunderground v.1.15,2013-03-14 23:38:00,
2013-03-14 19:39:00,47.2,15.7,30.17,WSW,238,0.0,3.0,28,0.00,,,0.00,Wunderground v.1.15,2013-03-14 23:39:00,
2013-03-14 19:40:00,47.1,14.8,30.17,WSW,237,0.0,1.0,27,0.00,,,0.00,Wunderground v.1.15,2013-03-14 23:40:00,
2013-03-14 19:42:00,47.0,15.5,30.17,SW,236,0.0,1.0,28,0.00,,,0.00,Wunderground v.1.15,2013-03-14 23:42:00,
2013-03-14 19:44:00,46.8,15.4,30.17,SW,236,1.0,1.0,28,0.00,,,0.00,Wunderground v.1.15,2013-03-14 23:44:00,
2013-03-14 19:45:00,46.7,15.3,30.17,SW,236,1.0,1.0,28,0.00,,,0.00,Wunderground v.1.15,2013-03-14 23:45:00,
2013-03-14 19:47:00,46.6,15.2,30.17,SW,229,2.0,2.0,28,0.00,,,0.00,Wunderground v.1.15,2013-03-14 23:47:00,
2013-03-14 19:49:00,46.6,15.2,30.17,WSW,257,1.0,2.0,28,0.00,,,0.00,Wunderground v.1.15,2013-03-14 23:49:00,
2013-03-14 19:50:00,46.5,15.1,30.17,WSW,245,0.0,1.0,28,0.00,,,0.00,Wunderground v.1.15,2013-03-14 23:50:00,
2013-03-14 19:52:00,46.5,15.1,30.17,WSW,255,1.0,3.0,28,0.00,,,0.00,Wunderground v.1.15,2013-03-14 23:52:00,
2013-03-14 19:54:00,46.5,15.1,30.17,WSW,250,2.0,3.0,28,0.00,,,0.00,Wunderground v.1.15,2013-03-14 23:54:00,
2013-03-14 19:55:00,46.5,15.1,30.17,WSW,258,1.0,3.0,28,0.00,,,0.00,Wunderground v.1.15,2013-03-14 23:55:00,
2013-03-14 19:57:00,46.5,15.1,30.17,NW,305,0.0,3.0,28,0.00,,,0.00,Wunderground v.1.15,2013-03-14 23:57:00,
2013-03-14 19:59:00,46.4,15.8,30.18,WSW,250,0.0,3.0,29,0.00,,,0.00,Wunderground v.1.15,2013-03-14 23:59:00,
2013-03-14 20:00:00,46.4,15.8,30.18,WSW,250,0.0,1.0,29,0.00,,,0.00,Wunderground v.1.15,2013-03-15 00:00:00,
2013-03-14 20:02:00,46.3,16.5,30.18,NW,316,0.0,3.0,30,0.00,,,0.00,Wunderground v.1.15,2013-03-15 00:02:00,
2013-03-14 20:05:00,46.1,17.1,30.17,NW,316,1.0,3.0,31,0.00,,,0.00,Wunderground v.1.15,2013-03-15 00:05:00,
2013-03-14 20:07:00,45.8,16.8,30.18,NW,316,0.0,3.0,31,0.00,,,0.00,Wunderground v.1.15,2013-03-15 00:07:00,
2013-03-14 20:10:00,45.7,17.5,30.18,NW,316,0.0,0.0,32,0.00,,,0.00,Wunderground v.1.15,2013-03-15 00:10:00,
2013-03-14 20:13:00,45.3,17.1,30.18,NW,316,0.0,0.0,32,0.00,,,0.00,Wunderground v.1.15,2013-03-15 00:13:00,
2013-03-14 20:15:00,45.1,17.7,30.18,NW,316,0.0,0.0,33,0.00,,,0.00,Wunderground v.1.15,2013-03-15 00:15:00,
2013-03-14 20:18:00,44.7,15.9,30.18,WSW,253,0.0,1.0,31,0.00,,,0.00,Wunderground v.1.15,2013-03-15 00:18:00,
2013-03-14 20:20:00,44.7,16.6,30.18,WSW,250,0.0,0.0,32,0.00,,,0.00,Wunderground v.1.15,2013-03-15 00:20:00,
2013-03-14 20:24:00,44.7,16.6,30.18,WSW,255,2.0,2.0,32,0.00,,,0.00,Wunderground v.1.15,2013-03-15 00:24:00,
2013-03-14 20:25:00,44.8,17.4,30.18,WNW,283,2.0,2.0,33,0.00,,,0.00,Wunderground v.1.15,2013-03-15 00:25:00,
2013-03-14 20:29:00,45.0,16.9,30.18,West,261,0.0,2.0,32,0.00,,,0.00,Wunderground v.1.15,2013-03-15 00:29:00,
2013-03-14 20:30:00,45.0,16.9,30.18,WSW,250,1.0,1.0,32,0.00,,,0.00,Wunderground v.1.15,2013-03-15 00:30:00,
2013-03-14 20:34:00,44.9,17.5,30.18,WSW,250,0.0,1.0,33,0.00,,,0.00,Wunderground v.1.15,2013-03-15 00:34:00,
2013-03-14 20:35:00,44.9,17.5,30.18,WSW,250,0.0,1.0,33,0.00,,,0.00,Wunderground v.1.15,2013-03-15 00:35:00,
2013-03-14 20:39:00,44.6,17.2,30.19,WNW,284,0.0,3.0,33,0.00,,,0.00,Wunderground v.1.15,2013-03-15 00:39:00,
2013-03-14 20:40:00,44.6,17.9,30.19,NW,304,1.0,1.0,34,0.00,,,0.00,Wunderground v.1.15,2013-03-15 00:40:00,
2013-03-14 20:44:00,44.4,17.7,30.18,WNW,287,1.0,1.0,34,0.00,,,0.00,Wunderground v.1.15,2013-03-15 00:44:00,
2013-03-14 20:45:00,44.3,18.3,30.18,WNW,283,1.0,3.0,35,0.00,,,0.00,Wunderground v.1.15,2013-03-15 00:45:00,
2013-03-14 20:46:00,44.3,18.3,30.18,WNW,283,0.0,3.0,35,0.00,,,0.00,Wunderground v.1.15,2013-03-15 00:46:00,
2013-03-14 20:49:00,44.1,17.5,30.18,SW,236,1.0,3.0,34,0.00,,,0.00,Wunderground v.1.15,2013-03-15 00:49:00,
2013-03-14 20:50:00,44.2,17.6,30.18,WSW,245,1.0,1.0,34,0.00,,,0.00,Wunderground v.1.15,2013-03-15 00:50:00,
2013-03-14 20:51:00,44.2,17.6,30.18,WSW,245,1.0,1.0,34,0.00,,,0.00,Wunderground v.1.15,2013-03-15 00:51:00,
2013-03-14 20:52:00,44.1,18.2,30.18,WSW,248,1.0,2.0,35,0.00,,,0.00,Wunderground v.1.15,2013-03-15 00:52:00,
2013-03-14 20:54:00,43.9,18.0,30.18,West,264,2.0,4.0,35,0.00,,,0.00,Wunderground v.1.15,2013-03-15 00:54:00,
2013-03-14 20:55:00,43.9,18.0,30.19,NW,308,3.0,4.0,35,0.00,,,0.00,Wunderground v.1.15,2013-03-15 00:55:00,
2013-03-14 20:56:00,43.9,18.0,30.19,WNW,285,4.0,5.0,35,0.00,,,0.00,Wunderground v.1.15,2013-03-15 00:56:00,
2013-03-14 20:57:00,44.0,17.4,30.19,WSW,249,1.0,5.0,34,0.00,,,0.00,Wunderground v.1.15,2013-03-15 00:57:00,
2013-03-14 20:59:00,44.0,18.1,30.19,ESE,104,1.0,5.0,35,0.00,,,0.00,Wunderground v.1.15,2013-03-15 00:59:00,
2013-03-14 21:01:00,43.9,18.0,30.19,WSW,243,2.0,2.0,35,0.00,,,0.00,Wunderground v.1.15,2013-03-15 01:01:00,
2013-03-14 21:02:00,43.9,17.3,30.19,WSW,255,0.0,2.0,34,0.00,,,0.00,Wunderground v.1.15,2013-03-15 01:02:00,
2013-03-14 21:05:00,43.9,18.0,30.19,WSW,237,1.0,2.0,35,0.00,,,0.00,Wunderground v.1.15,2013-03-15 01:05:00,
2013-03-14 21:06:00,43.8,17.9,30.19,West,274,1.0,2.0,35,0.00,,,0.00,Wunderground v.1.15,2013-03-15 01:06:00,
2013-03-14 21:08:00,43.8,17.9,30.19,West,281,0.0,2.0,35,0.00,,,0.00,Wunderground v.1.15,2013-03-15 01:08:00,
2013-03-14 21:10:00,43.7,17.8,30.19,WNW,289,1.0,1.0,35,0.00,,,0.00,Wunderground v.1.15,2013-03-15 01:10:00,
2013-03-14 21:11:00,43.7,17.8,30.19,West,263,1.0,1.0,35,0.00,,,0.00,Wunderground v.1.15,2013-03-15 01:11:00,
2013-03-14 21:12:00,43.6,17.7,30.19,WSW,245,1.0,2.0,35,0.00,,,0.00,Wunderground v.1.15,2013-03-15 01:12:00,
2013-03-14 21:13:00,43.6,17.7,30.19,West,262,0.0,2.0,35,0.00,,,0.00,Wunderground v.1.15,2013-03-15 01:13:00,
2013-03-14 21:15:00,43.4,18.2,30.19,WSW,252,1.0,2.0,36,0.00,,,0.00,Wunderground v.1.15,2013-03-15 01:15:00,
2013-03-14 21:16:00,43.4,18.2,30.19,WSW,250,1.0,2.0,36,0.00,,,0.00,Wunderground v.1.15,2013-03-15 01:16:00,
2013-03-14 21:17:00,43.2,18.6,30.19,WNW,298,3.0,4.0,37,0.00,,,0.00,Wunderground v.1.15,2013-03-15 01:17:00,
2013-03-14 21:18:00,43.1,17.9,30.19,West,274,0.0,4.0,36,0.00,,,0.00,Wunderground v.1.15,2013-03-15 01:18:00,
2013-03-14 21:20:00,43.1,18.6,30.19,NW,304,2.0,2.0,37,0.00,,,0.00,Wunderground v.1.15,2013-03-15 01:20:00,
2013-03-14 21:21:00,43.0,18.5,30.19,WNW,300,0.0,2.0,37,0.00,,,0.00,Wunderground v.1.15,2013-03-15 01:21:00,
2013-03-14 21:22:00,42.9,18.4,30.19,WSW,253,1.0,2.0,37,0.00,,,0.00,Wunderground v.1.15,2013-03-15 01:22:00,
2013-03-14 21:24:00,42.8,18.3,30.19,WSW,253,1.0,2.0,37,0.00,,,0.00,Wunderground v.1.15,2013-03-15 01:24:00,
2013-03-14 21:25:00,42.7,18.2,30.19,WSW,253,1.0,2.0,37,0.00,,,0.00,Wunderground v.1.15,2013-03-15 01:25:00,
2013-03-14 21:26:00,42.7,18.2,30.19,WSW,253,1.0,2.0,37,0.00,,,0.00,Wunderground v.1.15,2013-03-15 01:26:00,
2013-03-14 21:28:00,42.7,17.6,30.19,West,266,1.0,3.0,36,0.00,,,0.00,Wunderground v.1.15,2013-03-15 01:28:00,
2013-03-14 21:29:00,42.7,18.2,30.19,West,263,0.0,3.0,37,0.00,,,0.00,Wunderground v.1.15,2013-03-15 01:29:00,
2013-03-14 21:31:00,42.6,18.1,30.19,West,264,0.0,1.0,37,0.00,,,0.00,Wunderground v.1.15,2013-03-15 01:31:00,
2013-03-14 21:33:00,42.5,18.6,30.19,West,267,1.0,1.0,38,0.00,,,0.00,Wunderground v.1.15,2013-03-15 01:33:00,
2013-03-14 21:34:00,42.5,18.0,30.19,West,267,0.0,1.0,37,0.00,,,0.00,Wunderground v.1.15,2013-03-15 01:34:00,
2013-03-14 21:36:00,42.3,18.5,30.19,West,268,0.0,1.0,38,0.00,,,0.00,Wunderground v.1.15,2013-03-15 01:36:00,
2013-03-14 21:37:00,42.3,18.5,30.19,West,267,0.0,1.0,38,0.00,,,0.00,Wunderground v.1.15,2013-03-15 01:37:00,
2013-03-14 21:38:00,42.1,18.3,30.19,West,267,0.0,1.0,38,0.00,,,0.00,Wunderground v.1.15,2013-03-15 01:38:00,
2013-03-14 21:39:00,42.1,18.3,30.19,WSW,253,1.0,2.0,38,0.00,,,0.00,Wunderground v.1.15,2013-03-15 01:39:00,
2013-03-14 21:41:00,42.0,18.2,30.19,WNW,301,1.0,3.0,38,0.00,,,0.00,Wunderground v.1.15,2013-03-15 01:41:00,
2013-03-14 21:42:00,42.0,18.8,30.19,WNW,301,1.0,3.0,39,0.00,,,0.00,Wunderground v.1.15,2013-03-15 01:42:00,
2013-03-14 21:43:00,41.9,18.7,30.19,WSW,255,1.0,3.0,39,0.00,,,0.00,Wunderground v.1.15,2013-03-15 01:43:00,
2013-03-14 21:44:00,41.9,18.1,30.19,West,274,2.0,3.0,38,0.00,,,0.00,Wunderground v.1.15,2013-03-15 01:44:00,
2013-03-14 21:46:00,41.9,18.1,30.19,SW,215,1.0,3.0,38,0.00,,,0.00,Wunderground v.1.15,2013-03-15 01:46:00,
2013-03-14 21:47:00,41.9,18.1,30.19,WSW,252,1.0,3.0,38,0.00,,,0.00,Wunderground v.1.15,2013-03-15 01:47:00,
2013-03-14 21:48:00,41.9,18.1,30.19,WSW,243,2.0,3.0,38,0.00,,,0.00,Wunderground v.1.15,2013-03-15 01:48:00,
2013-03-14 21:49:00,41.8,18.0,30.20,WSW,255,1.0,3.0,38,0.00,,,0.00,Wunderground v.1.15,2013-03-15 01:49:00,
2013-03-14 21:52:00,41.7,17.9,30.20,WSW,237,1.0,2.0,38,0.00,,,0.00,Wunderground v.1.15,2013-03-15 01:52:00,
2013-03-14 21:54:00,41.7,18.5,30.20,WSW,238,0.0,2.0,39,0.00,,,0.00,Wunderground v.1.15,2013-03-15 01:54:00,
2013-03-14 21:57:00,41.4,18.3,30.20,SW,234,0.0,2.0,39,0.00,,,0.00,Wunderground v.1.15,2013-03-15 01:57:00,
2013-03-14 21:59:00,41.2,19.2,30.20,WNW,293,0.0,2.0,41,0.00,,,0.00,Wunderground v.1.15,2013-03-15 01:59:00,
2013-03-14 22:00:00,41.2,19.2,30.20,SW,233,1.0,1.0,41,0.00,,,0.00,Wunderground v.1.15,2013-03-15 02:00:00,
2013-03-14 22:02:00,41.0,19.1,30.20,West,267,0.0,1.0,41,0.00,,,0.00,Wunderground v.1.15,2013-03-15 02:02:00,
2013-03-14 22:04:00,40.9,19.0,30.20,West,268,0.0,1.0,41,0.00,,,0.00,Wunderground v.1.15,2013-03-15 02:04:00,
2013-03-14 22:05:00,40.9,19.0,30.20,West,268,0.0,1.0,41,0.00,,,0.00,Wunderground v.1.15,2013-03-15 02:05:00,
2013-03-14 22:08:00,40.7,18.8,30.20,West,276,0.0,1.0,41,0.00,,,0.00,Wunderground v.1.15,2013-03-15 02:08:00,
2013-03-14 22:09:00,40.7,18.8,30.20,West,277,0.0,1.0,41,0.00,,,0.00,Wunderground v.1.15,2013-03-15 02:09:00,
2013-03-14 22:10:00,40.7,18.8,30.20,West,276,1.0,1.0,41,0.00,,,0.00,Wunderground v.1.15,2013-03-15 02:10:00,
2013-03-14 22:13:00,40.6,19.3,30.20,SW,230,1.0,4.0,42,0.00,,,0.00,Wunderground v.1.15,2013-03-15 02:13:00,
2013-03-14 22:15:00,40.6,18.7,30.20,SW,229,0.0,4.0,41,0.00,,,0.00,Wunderground v.1.15,2013-03-15 02:15:00,
2013-03-14 22:18:00,40.4,18.5,30.20,SW,228,0.0,4.0,41,0.00,,,0.00,Wunderground v.1.15,2013-03-15 02:18:00,
2013-03-14 22:19:00,40.4,19.1,30.20,SW,228,0.0,4.0,42,0.00,,,0.00,Wunderground v.1.15,2013-03-15 02:19:00,
2013-03-14 22:20:00,40.3,18.4,30.20,SW,228,0.0,1.0,41,0.00,,,0.00,Wunderground v.1.15,2013-03-15 02:20:00,
2013-03-14 22:23:00,40.1,18.8,30.20,WNW,289,4.0,5.0,42,0.00,,,0.00,Wunderground v.1.15,2013-03-15 02:23:00,
2013-03-14 22:24:00,40.1,18.8,30.20,NW,305,3.0,5.0,42,0.00,,,0.00,Wunderground v.1.15,2013-03-15 02:24:00,
2013-03-14 22:25:00,40.1,18.8,30.20,WNW,301,0.0,5.0,42,0.00,,,0.00,Wunderground v.1.15,2013-03-15 02:25:00,
2013-03-14 22:28:00,40.1,18.8,30.20,West,273,0.0,5.0,42,0.00,,,0.00,Wunderground v.1.15,2013-03-15 02:28:00,
2013-03-14 22:29:00,40.1,18.8,30.20,West,273,0.0,5.0,42,0.00,,,0.00,Wunderground v.1.15,2013-03-15 02:29:00,
2013-03-14 22:30:00,40.1,18.8,30.20,West,273,0.0,0.0,42,0.00,,,0.00,Wunderground v.1.15,2013-03-15 02:30:00,
2013-03-14 22:33:00,39.9,18.6,30.20,NW,312,1.0,2.0,42,0.00,,,0.00,Wunderground v.1.15,2013-03-15 02:33:00,
2013-03-14 22:34:00,39.9,18.6,30.20,NW,310,0.0,2.0,42,0.00,,,0.00,Wunderground v.1.15,2013-03-15 02:34:00,
2013-03-14 22:35:00,39.8,18.5,30.20,NW,310,0.0,2.0,42,0.00,,,0.00,Wunderground v.1.15,2013-03-15 02:35:00,
2013-03-14 22:39:00,39.7,19.0,30.20,ENE,65,0.0,2.0,43,0.00,,,0.00,Wunderground v.1.15,2013-03-15 02:39:00,
2013-03-14 22:40:00,39.7,19.0,30.20,ENE,65,1.0,1.0,43,0.00,,,0.00,Wunderground v.1.15,2013-03-15 02:40:00,
2013-03-14 22:42:00,39.6,18.4,30.20,ENE,65,0.0,1.0,42,0.00,,,0.00,Wunderground v.1.15,2013-03-15 02:42:00,
2013-03-14 22:44:00,39.5,18.3,30.20,ENE,65,0.0,1.0,42,0.00,,,0.00,Wunderground v.1.15,2013-03-15 02:44:00,
2013-03-14 22:45:00,39.5,18.8,30.20,ENE,65,0.0,1.0,43,0.00,,,0.00,Wunderground v.1.15,2013-03-15 02:45:00,
2013-03-14 22:47:00,39.4,18.7,30.20,ENE,67,1.0,1.0,43,0.00,,,0.00,Wunderground v.1.15,2013-03-15 02:47:00,
2013-03-14 22:49:00,39.4,18.2,30.21,WSW,250,1.0,2.0,42,0.00,,,0.00,Wunderground v.1.15,2013-03-15 02:49:00,
2013-03-14 22:50:00,39.4,18.7,30.21,WSW,238,1.0,1.0,43,0.00,,,0.00,Wunderground v.1.15,2013-03-15 02:50:00,
2013-03-14 22:52:00,39.6,18.9,30.21,SW,224,2.0,2.0,43,0.00,,,0.00,Wunderground v.1.15,2013-03-15 02:52:00,
2013-03-14 22:54:00,39.5,18.8,30.21,SW,229,1.0,2.0,43,0.00,,,0.00,Wunderground v.1.15,2013-03-15 02:54:00,
2013-03-14 22:55:00,39.6,18.9,30.21,SW,229,0.0,2.0,43,0.00,,,0.00,Wunderground v.1.15,2013-03-15 02:55:00,
2013-03-14 22:58:00,39.6,18.9,30.21,WNW,282,0.0,2.0,43,0.00,,,0.00,Wunderground v.1.15,2013-03-15 02:58:00,
2013-03-14 22:59:00,39.5,18.8,30.21,WNW,282,0.0,2.0,43,0.00,,,0.00,Wunderground v.1.15,2013-03-15 02:59:00,
2013-03-14 23:00:00,39.5,18.8,30.21,WNW,283,0.0,1.0,43,0.00,,,0.00,Wunderground v.1.15,2013-03-15 03:00:00,
2013-03-14 23:03:00,39.3,18.6,30.21,WSW,241,1.0,1.0,43,0.00,,,0.00,Wunderground v.1.15,2013-03-15 03:03:00,
2013-03-14 23:04:00,39.3,19.2,30.22,WSW,241,1.0,1.0,44,0.00,,,0.00,Wunderground v.1.15,2013-03-15 03:04:00,
2013-03-14 23:05:00,39.3,19.2,30.21,WSW,241,0.0,1.0,44,0.00,,,0.00,Wunderground v.1.15,2013-03-15 03:05:00,
2013-03-14 23:06:00,39.2,19.1,30.21,WSW,242,0.0,1.0,44,0.00,,,0.00,Wunderground v.1.15,2013-03-15 03:06:00,
2013-03-14 23:08:00,39.1,19.0,30.21,WSW,245,1.0,1.0,44,0.00,,,0.00,Wunderground v.1.15,2013-03-15 03:08:00,
2013-03-14 23:09:00,39.1,19.0,30.21,WSW,252,0.0,2.0,44,0.00,,,0.00,Wunderground v.1.15,2013-03-15 03:09:00,
2013-03-14 23:10:00,39.1,19.0,30.22,WSW,252,0.0,1.0,44,0.00,,,0.00,Wunderground v.1.15,2013-03-15 03:10:00,
2013-03-14 23:11:00,39.1,19.0,30.22,WSW,252,0.0,1.0,44,0.00,,,0.00,Wunderground v.1.15,2013-03-15 03:11:00,
2013-03-14 23:13:00,39.1,19.0,30.22,WSW,252,0.0,1.0,44,0.00,,,0.00,Wunderground v.1.15,2013-03-15 03:13:00,
2013-03-14 23:15:00,39.0,18.9,30.22,WSW,252,0.0,1.0,44,0.00,,,0.00,Wunderground v.1.15,2013-03-15 03:15:00,
2013-03-14 23:16:00,38.9,18.8,30.22,WSW,252,0.0,1.0,44,0.00,,,0.00,Wunderground v.1.15,2013-03-15 03:16:00,
2013-03-14 23:18:00,38.9,18.8,30.22,WSW,252,0.0,1.0,44,0.00,,,0.00,Wunderground v.1.15,2013-03-15 03:18:00,
2013-03-14 23:20:00,38.8,18.7,30.22,WSW,252,0.0,0.0,44,0.00,,,0.00,Wunderground v.1.15,2013-03-15 03:20:00,
2013-03-14 23:21:00,38.8,18.7,30.22,WSW,252,0.0,0.0,44,0.00,,,0.00,Wunderground v.1.15,2013-03-15 03:21:00,
2013-03-14 23:22:00,38.7,18.6,30.22,West,277,1.0,2.0,44,0.00,,,0.00,Wunderground v.1.15,2013-03-15 03:22:00,
2013-03-14 23:23:00,38.7,19.2,30.22,West,278,0.0,2.0,45,0.00,,,0.00,Wunderground v.1.15,2013-03-15 03:23:00,
2013-03-14 23:25:00,38.7,19.2,30.22,West,278,0.0,2.0,45,0.00,,,0.00,Wunderground v.1.15,2013-03-15 03:25:00,
2013-03-14 23:26:00,38.7,19.2,30.22,West,278,0.0,2.0,45,0.00,,,0.00,Wunderground v.1.15,2013-03-15 03:26:00,
2013-03-14 23:27:00,38.6,19.1,30.22,West,274,0.0,2.0,45,0.00,,,0.00,Wunderground v.1.15,2013-03-15 03:27:00,
2013-03-14 23:28:00,38.6,19.1,30.22,West,263,1.0,2.0,45,0.00,,,0.00,Wunderground v.1.15,2013-03-15 03:28:00,
2013-03-14 23:30:00,38.6,19.1,30.22,West,263,0.0,0.0,45,0.00,,,0.00,Wunderground v.1.15,2013-03-15 03:30:00,
2013-03-14 23:31:00,38.6,19.1,30.22,West,263,0.0,0.0,45,0.00,,,0.00,Wunderground v.1.15,2013-03-15 03:31:00,
2013-03-14 23:32:00,38.6,19.1,30.22,WSW,250,2.0,2.0,45,0.00,,,0.00,Wunderground v.1.15,2013-03-15 03:32:00,
2013-03-14 23:34:00,38.6,19.1,30.22,WSW,250,1.0,2.0,45,0.00,,,0.00,Wunderground v.1.15,2013-03-15 03:34:00,
2013-03-14 23:35:00,38.7,19.2,30.22,WSW,250,0.0,2.0,45,0.00,,,0.00,Wunderground v.1.15,2013-03-15 03:35:00,
2013-03-14 23:37:00,38.7,19.2,30.22,WSW,246,1.0,2.0,45,0.00,,,0.00,Wunderground v.1.15,2013-03-15 03:37:00,
2013-03-14 23:38:00,38.7,19.2,30.22,WSW,246,0.0,2.0,45,0.00,,,0.00,Wunderground v.1.15,2013-03-15 03:38:00,
2013-03-14 23:39:00,38.8,19.2,30.22,WSW,246,0.0,2.0,45,0.00,,,0.00,Wunderground v.1.15,2013-03-15 03:39:00,
2013-03-14 23:41:00,38.8,19.2,30.22,West,267,1.0,1.0,45,0.00,,,0.00,Wunderground v.1.15,2013-03-15 03:41:00,
2013-03-14 23:42:00,38.9,19.3,30.22,WSW,240,1.0,2.0,45,0.00,,,0.00,Wunderground v.1.15,2013-03-15 03:42:00,
2013-03-14 23:43:00,38.9,19.3,30.22,WSW,257,1.0,2.0,45,0.00,,,0.00,Wunderground v.1.15,2013-03-15 03:43:00,
2013-03-14 23:44:00,39.0,18.9,30.21,WSW,255,1.0,2.0,44,0.00,,,0.00,Wunderground v.1.15,2013-03-15 03:44:00,
2013-03-14 23:46:00,39.1,19.0,30.22,WSW,245,1.0,2.0,44,0.00,,,0.00,Wunderground v.1.15,2013-03-15 03:46:00,
2013-03-14 23:47:00,39.1,19.0,30.22,WSW,249,1.0,2.0,44,0.00,,,0.00,Wunderground v.1.15,2013-03-15 03:47:00,
2013-03-14 23:48:00,39.2,19.1,30.22,WSW,249,1.0,2.0,44,0.00,,,0.00,Wunderground v.1.15,2013-03-15 03:48:00,
2013-03-14 23:49:00,39.2,19.1,30.22,WSW,250,1.0,2.0,44,0.00,,,0.00,Wunderground v.1.15,2013-03-15 03:49:00,
2013-03-14 23:52:00,39.2,19.1,30.21,WSW,250,0.0,1.0,44,0.00,,,0.00,Wunderground v.1.15,2013-03-15 03:52:00,
2013-03-14 23:53:00,39.2,19.1,30.21,WSW,250,0.0,1.0,44,0.00,,,0.00,Wunderground v.1.15,2013-03-15 03:53:00,
2013-03-14 23:54:00,39.2,19.1,30.22,WSW,250,0.0,1.0,44,0.00,,,0.00,Wunderground v.1.15,2013-03-15 03:54:00,
2013-03-14 23:57:00,39.1,19.0,30.22,WSW,250,0.0,1.0,44,0.00,,,0.00,Wunderground v.1.15,2013-03-15 03:57:00,
2013-03-14 23:58:00,39.1,19.0,30.22,WSW,250,0.0,1.0,44,0.00,,,0.00,Wunderground v.1.15,2013-03-15 03:58:00,
2013-03-14 23:59:00,39.0,18.9,30.22,WSW,250,0.0,1.0,44,0.00,,,0.00,Wunderground v.1.15,2013-03-15 03:59:00,